Time,TemperatureF,DewpointF,PressureIn,WindDirection,WindDirectionDegrees,WindSpeedMPH,WindSpeedGustMPH,Humidity,HourlyPrecipIn,Conditions,Clouds,dailyrainin,SoftwareType,DateUTC
2013-05-27 00:00:00,55.7,47.5,30.02,ESE,122,1.0,6.0,74,0.00,,---,0.00,VWS V14.00,2013-05-27 05:00:00,
2013-05-27 00:02:00,55.7,47.9,30.02,ESE,120,6.0,6.0,75,0.00,,---,0.00,VWS V14.00,2013-05-27 05:02:00,
2013-05-27 00:05:00,55.6,47.8,30.02,SE,136,3.0,6.0,75,0.00,,---,0.00,VWS V14.00,2013-05-27 05:05:00,
2013-05-27 00:07:00,55.5,47.7,30.01,SE,136,4.0,6.0,75,0.00,,---,0.00,VWS V14.00,2013-05-27 05:07:00,
2013-05-27 00:10:00,55.5,48.1,30.01,SE,124,1.0,6.0,76,0.00,,---,0.00,VWS V14.00,2013-05-27 05:10:00,
2013-05-27 00:12:00,55.4,48.3,30.01,ESE,105,2.0,4.0,77,0.00,,---,0.00,VWS V14.00,2013-05-27 05:12:00,
2013-05-27 00:15:00,55.3,48.2,30.01,SE,142,3.0,5.0,77,0.00,,---,0.00,VWS V14.00,2013-05-27 05:15:00,
2013-05-27 00:17:00,55.3,47.9,30.01,East,92,4.0,6.0,76,0.00,,---,0.00,VWS V14.00,2013-05-27 05:17:00,
2013-05-27 00:20:00,55.3,47.9,30.01,ENE,69,1.0,6.0,76,0.00,,---,0.00,VWS V14.00,2013-05-27 05:20:00,
2013-05-27 00:22:00,55.3,47.9,30.01,East,94,1.0,6.0,76,0.00,,---,0.00,VWS V14.00,2013-05-27 05:22:00,
2013-05-27 00:25:00,55.3,47.5,30.01,SE,128,1.0,6.0,75,0.00,,---,0.00,VWS V14.00,2013-05-27 05:25:00,
2013-05-27 00:27:00,55.3,47.5,30.00,SE,127,1.0,10.0,75,0.00,,---,0.00,VWS V14.00,2013-05-27 05:27:00,
2013-05-27 00:30:00,55.3,47.2,30.00,ESE,109,1.0,10.0,74,0.00,,---,0.00,VWS V14.00,2013-05-27 05:30:00,
2013-05-27 00:32:00,55.3,47.2,30.00,East,98,4.0,7.0,74,0.00,,---,0.00,VWS V14.00,2013-05-27 05:32:00,
2013-05-27 00:35:00,55.2,47.4,30.00,ESE,123,2.0,7.0,75,0.00,,---,0.00,VWS V14.00,2013-05-27 05:35:00,
2013-05-27 00:37:00,55.2,47.1,30.00,SE,127,0.0,6.0,74,0.00,,---,0.00,VWS V14.00,2013-05-27 05:37:00,
2013-05-27 00:40:00,55.1,47.0,30.00,ESE,115,3.0,6.0,74,0.00,,---,0.00,VWS V14.00,2013-05-27 05:40:00,
2013-05-27 00:42:00,55.1,47.0,30.00,East,101,1.0,4.0,74,0.00,,---,0.00,VWS V14.00,2013-05-27 05:42:00,
2013-05-27 00:45:00,55.1,46.6,30.00,SE,124,5.0,6.0,73,0.00,,---,0.00,VWS V14.00,2013-05-27 05:45:00,
2013-05-27 00:47:00,55.1,46.2,30.00,East,96,1.0,7.0,72,0.00,,---,0.00,VWS V14.00,2013-05-27 05:47:00,
2013-05-27 00:50:00,55.1,45.9,30.00,SE,133,3.0,7.0,71,0.00,,---,0.00,VWS V14.00,2013-05-27 05:50:00,
2013-05-27 00:52:00,55.2,46.0,30.00,ENE,77,3.0,4.0,71,0.00,,---,0.00,VWS V14.00,2013-05-27 05:52:00,
2013-05-27 00:55:00,55.1,45.5,30.00,ENE,74,0.0,6.0,70,0.00,,---,0.00,VWS V14.00,2013-05-27 05:55:00,
2013-05-27 00:57:00,55.0,45.4,30.00,SE,138,3.0,4.0,70,0.00,,---,0.00,VWS V14.00,2013-05-27 05:57:00,
2013-05-27 01:00:00,54.9,45.3,30.00,ESE,111,5.0,6.0,70,0.00,,---,0.00,VWS V14.00,2013-05-27 06:00:00,
2013-05-27 01:02:00,54.9,45.3,30.00,East,98,2.0,9.0,70,0.00,,---,0.00,VWS V14.00,2013-05-27 06:02:00,
2013-05-27 01:05:00,54.8,45.2,30.00,ESE,117,0.0,9.0,70,0.00,,---,0.00,VWS V14.00,2013-05-27 06:05:00,
2013-05-27 01:07:00,54.7,45.5,30.00,ESE,111,3.0,4.0,71,0.00,,---,0.00,VWS V14.00,2013-05-27 06:07:00,
2013-05-27 01:10:00,54.6,45.4,30.00,East,91,0.0,4.0,71,0.00,,---,0.00,VWS V14.00,2013-05-27 06:10:00,
2013-05-27 01:12:00,54.5,44.9,30.00,ENE,77,0.0,5.0,70,0.00,,---,0.00,VWS V14.00,2013-05-27 06:12:00,
2013-05-27 01:15:00,54.5,45.3,30.00,ESE,103,2.0,5.0,71,0.00,,---,0.00,VWS V14.00,2013-05-27 06:15:00,
2013-05-27 01:17:00,54.4,44.8,30.00,SE,137,0.0,7.0,70,0.00,,---,0.00,VWS V14.00,2013-05-27 06:17:00,
2013-05-27 01:20:00,54.4,44.8,30.00,East,86,3.0,7.0,70,0.00,,---,0.00,VWS V14.00,2013-05-27 06:20:00,
2013-05-27 01:22:00,54.4,44.8,30.00,East,96,3.0,7.0,70,0.00,,---,0.00,VWS V14.00,2013-05-27 06:22:00,
2013-05-27 01:25:00,54.4,44.8,30.00,SE,126,2.0,7.0,70,0.00,,---,0.00,VWS V14.00,2013-05-27 06:25:00,
2013-05-27 01:27:00,54.3,44.7,29.99,ESE,109,3.0,5.0,70,0.00,,---,0.00,VWS V14.00,2013-05-27 06:27:00,
2013-05-27 01:30:00,54.2,44.6,29.99,SE,136,5.0,8.0,70,0.00,,---,0.00,VWS V14.00,2013-05-27 06:30:00,
2013-05-27 01:32:00,54.2,44.3,29.99,ESE,118,3.0,7.0,69,0.00,,---,0.00,VWS V14.00,2013-05-27 06:32:00,
2013-05-27 01:35:00,54.2,44.6,29.99,SSE,150,1.0,7.0,70,0.00,,---,0.00,VWS V14.00,2013-05-27 06:35:00,
2013-05-27 01:37:00,54.2,44.6,29.99,East,79,2.0,5.0,70,0.00,,---,0.00,VWS V14.00,2013-05-27 06:37:00,
2013-05-27 01:40:00,54.1,44.5,29.99,ESE,123,2.0,5.0,70,0.00,,---,0.00,VWS V14.00,2013-05-27 06:40:00,
2013-05-27 01:42:00,54.2,44.3,29.99,ESE,110,4.0,5.0,69,0.00,,---,0.00,VWS V14.00,2013-05-27 06:42:00,
2013-05-27 01:45:00,54.2,44.3,29.99,ESE,103,3.0,7.0,69,0.00,,---,0.00,VWS V14.00,2013-05-27 06:45:00,
2013-05-27 01:47:00,54.2,44.3,29.99,ESE,109,3.0,4.0,69,0.00,,---,0.00,VWS V14.00,2013-05-27 06:47:00,
2013-05-27 01:50:00,54.2,44.3,29.99,ESE,111,1.0,6.0,69,0.00,,---,0.00,VWS V14.00,2013-05-27 06:50:00,
2013-05-27 01:52:00,54.1,44.5,29.98,ESE,113,4.0,4.0,70,0.00,,---,0.00,VWS V14.00,2013-05-27 06:52:00,
2013-05-27 01:55:00,54.1,44.5,29.98,ENE,72,0.0,4.0,70,0.00,,---,0.00,VWS V14.00,2013-05-27 06:55:00,
2013-05-27 01:57:00,54.1,44.5,29.98,ESE,103,0.0,5.0,70,0.00,,---,0.00,VWS V14.00,2013-05-27 06:57:00,
2013-05-27 02:00:00,54.0,44.5,29.98,ESE,114,4.0,5.0,70,0.00,,---,0.00,VWS V14.00,2013-05-27 07:00:00,
2013-05-27 02:02:00,54.0,44.5,29.98,East,82,4.0,6.0,70,0.00,,---,0.00,VWS V14.00,2013-05-27 07:02:00,
2013-05-27 02:05:00,54.0,44.5,29.98,ESE,105,2.0,6.0,70,0.00,,---,0.00,VWS V14.00,2013-05-27 07:05:00,
2013-05-27 02:07:00,54.0,44.1,29.98,SE,126,2.0,7.0,69,0.00,,---,0.00,VWS V14.00,2013-05-27 07:07:00,
2013-05-27 02:10:00,54.0,45.2,29.98,East,88,2.0,7.0,72,0.00,,---,0.00,VWS V14.00,2013-05-27 07:10:00,
2013-05-27 02:12:00,53.9,44.0,29.97,ESE,121,2.0,6.0,69,0.00,,---,0.00,VWS V14.00,2013-05-27 07:12:00,
2013-05-27 02:15:00,53.9,44.3,29.97,SE,127,1.0,6.0,70,0.00,,---,0.00,VWS V14.00,2013-05-27 07:15:00,
2013-05-27 02:17:00,53.9,44.3,29.97,ESE,115,1.0,8.0,70,0.00,,---,0.00,VWS V14.00,2013-05-27 07:17:00,
2013-05-27 02:20:00,53.9,44.0,29.97,ENE,76,0.0,8.0,69,0.00,,---,0.00,VWS V14.00,2013-05-27 07:20:00,
2013-05-27 02:22:00,53.8,44.3,29.97,East,99,4.0,6.0,70,0.00,,---,0.00,VWS V14.00,2013-05-27 07:22:00,
2013-05-27 02:25:00,53.8,43.9,29.97,ESE,119,1.0,7.0,69,0.00,,---,0.00,VWS V14.00,2013-05-27 07:25:00,
2013-05-27 02:27:00,53.8,44.3,29.97,ESE,117,3.0,5.0,70,0.00,,---,0.00,VWS V14.00,2013-05-27 07:27:00,
2013-05-27 02:30:00,53.7,44.2,29.97,SE,132,3.0,8.0,70,0.00,,---,0.00,VWS V14.00,2013-05-27 07:30:00,
2013-05-27 02:32:00,53.8,44.3,29.97,SE,128,3.0,6.0,70,0.00,,---,0.00,VWS V14.00,2013-05-27 07:32:00,
2013-05-27 02:35:00,53.7,44.2,29.97,SSE,157,1.0,6.0,70,0.00,,---,0.00,VWS V14.00,2013-05-27 07:35:00,
2013-05-27 02:37:00,53.7,44.2,29.97,ESE,111,0.0,4.0,70,0.00,,---,0.00,VWS V14.00,2013-05-27 07:37:00,
2013-05-27 02:40:00,53.8,44.6,29.97,East,84,2.0,4.0,71,0.00,,---,0.00,VWS V14.00,2013-05-27 07:40:00,
2013-05-27 02:42:00,53.7,44.5,29.97,East,89,0.0,3.0,71,0.00,,---,0.00,VWS V14.00,2013-05-27 07:42:00,
2013-05-27 02:45:00,53.7,44.5,29.96,East,101,1.0,4.0,71,0.00,,---,0.00,VWS V14.00,2013-05-27 07:45:00,
2013-05-27 02:47:00,53.7,44.2,29.96,ESE,111,0.0,5.0,70,0.00,,---,0.00,VWS V14.00,2013-05-27 07:47:00,
2013-05-27 02:50:00,53.7,44.2,29.96,East,96,6.0,6.0,70,0.00,,---,0.00,VWS V14.00,2013-05-27 07:50:00,
2013-05-27 02:52:00,53.7,44.2,29.95,ESE,122,3.0,6.0,70,0.00,,---,0.00,VWS V14.00,2013-05-27 07:52:00,
2013-05-27 02:55:00,53.7,44.2,29.95,ESE,110,3.0,6.0,70,0.00,,---,0.00,VWS V14.00,2013-05-27 07:55:00,
2013-05-27 02:57:00,53.7,44.2,29.95,SE,125,6.0,6.0,70,0.00,,---,0.00,VWS V14.00,2013-05-27 07:57:00,
2013-05-27 03:00:00,53.7,44.2,29.94,East,84,0.0,8.0,70,0.00,,---,0.00,VWS V14.00,2013-05-27 08:00:00,
2013-05-27 03:02:00,53.7,44.2,29.95,ESE,109,4.0,10.0,70,0.00,,---,0.00,VWS V14.00,2013-05-27 08:02:00,
2013-05-27 03:05:00,53.7,44.2,29.95,ENE,65,1.0,10.0,70,0.00,,---,0.00,VWS V14.00,2013-05-27 08:05:00,
2013-05-27 03:07:00,53.7,44.2,29.95,East,82,2.0,5.0,70,0.00,,---,0.00,VWS V14.00,2013-05-27 08:07:00,
2013-05-27 03:10:00,53.7,44.2,29.95,East,99,2.0,6.0,70,0.00,,---,0.00,VWS V14.00,2013-05-27 08:10:00,
2013-05-27 03:12:00,53.7,44.2,29.95,East,87,0.0,5.0,70,0.00,,---,0.00,VWS V14.00,2013-05-27 08:12:00,
2013-05-27 03:15:00,53.7,44.2,29.95,ESE,117,2.0,5.0,70,0.00,,---,0.00,VWS V14.00,2013-05-27 08:15:00,
2013-05-27 03:17:00,53.7,44.2,29.95,ESE,116,4.0,5.0,70,0.00,,---,0.00,VWS V14.00,2013-05-27 08:17:00,
2013-05-27 03:20:00,53.7,44.2,29.95,ENE,76,0.0,5.0,70,0.00,,---,0.00,VWS V14.00,2013-05-27 08:20:00,
2013-05-27 03:22:00,53.7,44.5,29.95,ESE,117,0.0,10.0,71,0.00,,---,0.00,VWS V14.00,2013-05-27 08:22:00,
2013-05-27 03:25:00,53.7,44.5,29.95,SE,134,4.0,10.0,71,0.00,,---,0.00,VWS V14.00,2013-05-27 08:25:00,
2013-05-27 03:27:00,53.8,44.3,29.95,SE,137,1.0,8.0,70,0.00,,---,0.00,VWS V14.00,2013-05-27 08:27:00,
2013-05-27 03:30:00,53.8,44.3,29.95,SE,134,1.0,8.0,70,0.00,,---,0.00,VWS V14.00,2013-05-27 08:30:00,
2013-05-27 03:32:00,53.8,44.6,29.94,ESE,117,4.0,5.0,71,0.00,,---,0.00,VWS V14.00,2013-05-27 08:32:00,
2013-05-27 03:35:00,53.9,44.3,29.94,SE,134,2.0,7.0,70,0.00,,---,0.00,VWS V14.00,2013-05-27 08:35:00,
2013-05-27 03:37:00,53.9,44.3,29.94,SE,142,0.0,5.0,70,0.00,,---,0.00,VWS V14.00,2013-05-27 08:37:00,
2013-05-27 03:40:00,53.9,44.3,29.94,ESE,115,2.0,6.0,70,0.00,,---,0.00,VWS V14.00,2013-05-27 08:40:00,
2013-05-27 03:42:00,53.9,44.7,29.94,SE,130,2.0,4.0,71,0.00,,---,0.00,VWS V14.00,2013-05-27 08:42:00,
2013-05-27 03:45:00,54.0,44.8,29.94,ESE,102,2.0,5.0,71,0.00,,---,0.00,VWS V14.00,2013-05-27 08:45:00,
2013-05-27 03:47:00,54.0,44.5,29.94,SE,139,2.0,4.0,70,0.00,,---,0.00,VWS V14.00,2013-05-27 08:47:00,
2013-05-27 03:50:00,54.1,44.5,29.94,ESE,109,2.0,5.0,70,0.00,,---,0.00,VWS V14.00,2013-05-27 08:50:00,
2013-05-27 03:52:00,54.1,44.5,29.94,SE,138,4.0,5.0,70,0.00,,---,0.00,VWS V14.00,2013-05-27 08:52:00,
2013-05-27 03:55:00,54.2,44.6,29.94,SSE,163,1.0,5.0,70,0.00,,---,0.00,VWS V14.00,2013-05-27 08:55:00,
2013-05-27 03:57:00,54.2,44.6,29.94,SE,129,0.0,4.0,70,0.00,,---,0.00,VWS V14.00,2013-05-27 08:57:00,
2013-05-27 04:00:00,54.2,44.6,29.94,SE,129,2.0,4.0,70,0.00,,---,0.00,VWS V14.00,2013-05-27 09:00:00,
2013-05-27 04:02:00,54.2,44.6,29.94,SE,136,3.0,4.0,70,0.00,,---,0.00,VWS V14.00,2013-05-27 09:02:00,
2013-05-27 04:05:00,54.2,44.6,29.94,SE,126,1.0,4.0,70,0.00,,---,0.00,VWS V14.00,2013-05-27 09:05:00,
2013-05-27 04:07:00,54.2,44.6,29.94,SE,127,2.0,3.0,70,0.00,,---,0.00,VWS V14.00,2013-05-27 09:07:00,
2013-05-27 04:10:00,54.3,44.7,29.95,ESE,123,0.0,7.0,70,0.00,,---,0.00,VWS V14.00,2013-05-27 09:10:00,
2013-05-27 04:12:00,54.3,44.7,29.94,ESE,123,1.0,1.0,70,0.00,,---,0.00,VWS V14.00,2013-05-27 09:12:00,
2013-05-27 04:15:00,54.4,45.2,29.94,ESE,123,0.0,1.0,71,0.00,,---,0.00,VWS V14.00,2013-05-27 09:15:00,
2013-05-27 04:17:00,54.4,44.8,29.94,ESE,104,3.0,6.0,70,0.00,,---,0.00,VWS V14.00,2013-05-27 09:17:00,
2013-05-27 04:20:00,54.5,44.9,29.95,ESE,105,6.0,6.0,70,0.00,,---,0.00,VWS V14.00,2013-05-27 09:20:00,
2013-05-27 04:22:00,54.6,44.7,29.94,ESE,118,4.0,7.0,69,0.00,,---,0.00,VWS V14.00,2013-05-27 09:22:00,
2013-05-27 04:25:00,54.6,44.7,29.94,SSE,159,2.0,7.0,69,0.00,,---,0.00,VWS V14.00,2013-05-27 09:25:00,
2013-05-27 04:27:00,54.6,44.7,29.94,SE,137,7.0,7.0,69,0.00,,---,0.00,VWS V14.00,2013-05-27 09:27:00,
2013-05-27 04:30:00,54.5,44.9,29.94,SE,146,3.0,7.0,70,0.00,,---,0.00,VWS V14.00,2013-05-27 09:30:00,
2013-05-27 04:32:00,54.5,44.9,29.94,ESE,111,1.0,3.0,70,0.00,,---,0.00,VWS V14.00,2013-05-27 09:32:00,
2013-05-27 04:35:00,54.4,44.8,29.94,SE,146,1.0,6.0,70,0.00,,---,0.00,VWS V14.00,2013-05-27 09:35:00,
2013-05-27 04:37:00,54.4,45.2,29.94,ESE,105,4.0,4.0,71,0.00,,---,0.00,VWS V14.00,2013-05-27 09:37:00,
2013-05-27 04:40:00,54.2,45.0,29.94,ESE,113,1.0,6.0,71,0.00,,---,0.00,VWS V14.00,2013-05-27 09:40:00,
2013-05-27 04:42:00,54.2,45.0,29.94,ESE,119,0.0,7.0,71,0.00,,---,0.00,VWS V14.00,2013-05-27 09:42:00,
2013-05-27 04:45:00,54.0,45.2,29.93,SE,124,2.0,7.0,72,0.00,,---,0.00,VWS V14.00,2013-05-27 09:45:00,
2013-05-27 04:47:00,53.9,45.8,29.93,SE,144,0.0,3.0,74,0.00,,---,0.00,VWS V14.00,2013-05-27 09:47:00,
2013-05-27 04:50:00,53.7,46.0,29.93,ESE,121,3.0,4.0,75,0.00,,---,0.00,VWS V14.00,2013-05-27 09:50:00,
2013-05-27 04:52:00,53.5,45.8,29.93,ESE,117,3.0,4.0,75,0.00,,---,0.00,VWS V14.00,2013-05-27 09:52:00,
2013-05-27 04:55:00,53.4,46.0,29.92,SE,134,0.0,5.0,76,0.00,,---,0.00,VWS V14.00,2013-05-27 09:55:00,
2013-05-27 04:57:00,53.2,46.2,29.93,SE,136,7.0,7.0,77,0.00,,---,0.00,VWS V14.00,2013-05-27 09:57:00,
2013-05-27 05:00:00,53.1,46.4,29.92,SE,146,3.0,7.0,78,0.00,,---,0.00,VWS V14.00,2013-05-27 10:00:00,
2013-05-27 05:02:00,52.9,46.6,29.92,SE,146,4.0,4.0,79,0.01,,---,0.01,VWS V14.00,2013-05-27 10:02:00,
2013-05-27 05:05:00,52.8,46.8,29.92,SE,132,2.0,4.0,80,0.01,,---,0.01,VWS V14.00,2013-05-27 10:05:00,
2013-05-27 05:07:00,52.6,46.9,29.92,SSE,155,1.0,3.0,81,0.01,,---,0.01,VWS V14.00,2013-05-27 10:07:00,
2013-05-27 05:10:00,52.5,46.8,29.92,ESE,123,3.0,5.0,81,0.01,,---,0.01,VWS V14.00,2013-05-27 10:10:00,
2013-05-27 05:12:00,52.4,47.1,29.92,ESE,122,0.0,3.0,82,0.01,,---,0.01,VWS V14.00,2013-05-27 10:12:00,
2013-05-27 05:15:00,52.3,47.0,29.92,East,95,3.0,4.0,82,0.01,,---,0.01,VWS V14.00,2013-05-27 10:15:00,
2013-05-27 05:17:00,52.3,47.0,29.92,ESE,107,0.0,5.0,82,0.01,,---,0.01,VWS V14.00,2013-05-27 10:17:00,
2013-05-27 05:20:00,52.3,47.3,29.92,East,90,0.0,6.0,83,0.01,,---,0.01,VWS V14.00,2013-05-27 10:20:00,
2013-05-27 05:22:00,52.3,47.3,29.93,ESE,108,0.0,3.0,83,0.01,,---,0.01,VWS V14.00,2013-05-27 10:22:00,
2013-05-27 05:25:00,52.2,47.5,29.93,ESE,108,0.0,3.0,84,0.01,,---,0.01,VWS V14.00,2013-05-27 10:25:00,
2013-05-27 05:27:00,52.2,47.5,29.93,ESE,103,1.0,2.0,84,0.01,,---,0.01,VWS V14.00,2013-05-27 10:27:00,
2013-05-27 05:30:00,52.3,47.6,29.93,SE,137,4.0,4.0,84,0.01,,---,0.01,VWS V14.00,2013-05-27 10:30:00,
2013-05-27 05:32:00,52.3,47.9,29.93,ESE,117,0.0,4.0,85,0.01,,---,0.01,VWS V14.00,2013-05-27 10:32:00,
2013-05-27 05:35:00,52.3,47.9,29.93,ESE,117,0.0,4.0,85,0.01,,---,0.01,VWS V14.00,2013-05-27 10:35:00,
2013-05-27 05:37:00,52.3,47.9,29.93,ESE,117,1.0,3.0,85,0.01,,---,0.01,VWS V14.00,2013-05-27 10:37:00,
2013-05-27 05:40:00,52.2,48.2,29.93,SSE,161,1.0,3.0,86,0.02,,---,0.02,VWS V14.00,2013-05-27 10:40:00,
2013-05-27 05:42:00,52.2,48.2,29.94,SSE,161,0.0,1.0,86,0.02,,---,0.02,VWS V14.00,2013-05-27 10:42:00,
2013-05-27 05:45:00,52.1,48.4,29.94,SE,134,1.0,4.0,87,0.02,,---,0.02,VWS V14.00,2013-05-27 10:45:00,
2013-05-27 05:47:00,52.1,48.7,29.94,SE,133,0.0,4.0,88,0.03,,---,0.03,VWS V14.00,2013-05-27 10:47:00,
2013-05-27 05:50:00,52.0,48.6,29.94,SE,131,2.0,4.0,88,0.03,,---,0.03,VWS V14.00,2013-05-27 10:50:00,
2013-05-27 05:52:00,51.9,48.8,29.94,SE,125,0.0,4.0,89,0.04,,---,0.04,VWS V14.00,2013-05-27 10:52:00,
2013-05-27 05:55:00,51.9,48.8,29.94,SE,125,0.0,4.0,89,0.05,,---,0.05,VWS V14.00,2013-05-27 10:55:00,
2013-05-27 05:57:00,51.8,49.0,29.94,ESE,114,1.0,4.0,90,0.06,,---,0.06,VWS V14.00,2013-05-27 10:57:00,
2013-05-27 06:00:00,51.7,49.2,29.93,East,86,2.0,4.0,91,0.07,,---,0.07,VWS V14.00,2013-05-27 11:00:00,
2013-05-27 06:02:00,51.7,49.2,29.93,ESE,107,2.0,6.0,91,0.08,,---,0.08,VWS V14.00,2013-05-27 11:02:00,
2013-05-27 06:05:00,51.6,49.1,29.93,SE,135,0.0,6.0,91,0.10,,---,0.10,VWS V14.00,2013-05-27 11:05:00,
2013-05-27 06:07:00,51.6,49.4,29.93,ESE,105,1.0,4.0,92,0.10,,---,0.11,VWS V14.00,2013-05-27 11:07:00,
2013-05-27 06:10:00,51.5,49.3,29.93,East,91,0.0,4.0,92,0.11,,---,0.12,VWS V14.00,2013-05-27 11:10:00,
2013-05-27 06:12:00,51.5,49.3,29.93,East,92,2.0,2.0,92,0.12,,---,0.13,VWS V14.00,2013-05-27 11:12:00,
2013-05-27 06:15:00,51.5,49.3,29.93,East,92,0.0,2.0,92,0.13,,---,0.14,VWS V14.00,2013-05-27 11:15:00,
2013-05-27 06:17:00,51.4,49.2,29.93,East,85,2.0,4.0,92,0.14,,---,0.15,VWS V14.00,2013-05-27 11:17:00,
2013-05-27 06:20:00,51.4,49.5,29.93,East,82,0.0,4.0,93,0.14,,---,0.15,VWS V14.00,2013-05-27 11:20:00,
2013-05-27 06:22:00,51.3,49.3,29.93,ESE,122,0.0,4.0,93,0.15,,---,0.16,VWS V14.00,2013-05-27 11:22:00,
2013-05-27 06:25:00,51.3,49.3,29.93,East,97,0.0,4.0,93,0.15,,---,0.16,VWS V14.00,2013-05-27 11:25:00,
2013-05-27 06:27:00,51.3,49.3,29.93,East,82,1.0,2.0,93,0.15,,---,0.16,VWS V14.00,2013-05-27 11:27:00,
2013-05-27 06:30:00,51.2,49.2,29.93,East,92,0.0,3.0,93,0.15,,---,0.16,VWS V14.00,2013-05-27 11:30:00,
2013-05-27 06:32:00,51.2,49.2,29.93,East,101,4.0,4.0,93,0.15,,---,0.16,VWS V14.00,2013-05-27 11:32:00,
2013-05-27 06:35:00,51.2,49.2,29.93,East,82,1.0,4.0,93,0.16,,---,0.17,VWS V14.00,2013-05-27 11:35:00,
2013-05-27 06:37:00,51.2,49.5,29.93,ENE,63,0.0,5.0,94,0.16,,---,0.17,VWS V14.00,2013-05-27 11:37:00,
2013-05-27 06:40:00,51.2,49.5,29.93,ENE,65,0.0,5.0,94,0.16,,---,0.17,VWS V14.00,2013-05-27 11:40:00,
2013-05-27 06:42:00,51.3,49.6,29.93,ENE,71,0.0,2.0,94,0.15,,---,0.17,VWS V14.00,2013-05-27 11:42:00,
2013-05-27 06:45:00,51.3,49.6,29.93,ESE,118,2.0,2.0,94,0.15,,---,0.17,VWS V14.00,2013-05-27 11:45:00,
2013-05-27 06:47:00,51.3,49.6,29.93,East,83,2.0,5.0,94,0.15,,---,0.17,VWS V14.00,2013-05-27 11:47:00,
2013-05-27 06:50:00,51.3,49.6,29.93,ESE,118,5.0,5.0,94,0.15,,---,0.17,VWS V14.00,2013-05-27 11:50:00,
2013-05-27 06:52:00,51.3,49.6,29.93,ESE,115,3.0,5.0,94,0.14,,---,0.17,VWS V14.00,2013-05-27 11:52:00,
2013-05-27 06:55:00,51.4,50.0,29.93,East,86,2.0,5.0,95,0.14,,---,0.17,VWS V14.00,2013-05-27 11:55:00,
2013-05-27 06:57:00,51.4,50.0,29.93,East,86,2.0,4.0,95,0.12,,---,0.17,VWS V14.00,2013-05-27 11:57:00,
2013-05-27 07:00:00,51.5,50.1,29.94,East,79,2.0,4.0,95,0.12,,---,0.17,VWS V14.00,2013-05-27 12:00:00,
2013-05-27 07:02:00,51.5,50.1,29.94,ENE,63,0.0,4.0,95,0.10,,---,0.17,VWS V14.00,2013-05-27 12:02:00,
2013-05-27 07:05:00,51.6,50.2,29.94,ENE,63,2.0,4.0,95,0.10,,---,0.17,VWS V14.00,2013-05-27 12:05:00,
2013-05-27 07:07:00,51.6,50.2,29.94,ENE,68,0.0,3.0,95,0.07,,---,0.17,VWS V14.00,2013-05-27 12:07:00,
2013-05-27 07:10:00,51.7,50.3,29.94,ENE,69,0.0,3.0,95,0.07,,---,0.17,VWS V14.00,2013-05-27 12:10:00,
2013-05-27 07:12:00,51.7,50.3,29.94,ENE,69,0.0,1.0,95,0.05,,---,0.17,VWS V14.00,2013-05-27 12:12:00,
2013-05-27 07:15:00,51.7,50.3,29.94,ENE,69,0.0,3.0,95,0.05,,---,0.17,VWS V14.00,2013-05-27 12:15:00,
2013-05-27 07:17:00,51.7,50.3,29.94,ENE,69,1.0,3.0,95,0.03,,---,0.17,VWS V14.00,2013-05-27 12:17:00,
2013-05-27 07:20:00,51.7,50.3,29.94,ENE,68,0.0,3.0,95,0.03,,---,0.17,VWS V14.00,2013-05-27 12:20:00,
2013-05-27 07:22:00,51.8,50.4,29.94,East,92,3.0,4.0,95,0.02,,---,0.17,VWS V14.00,2013-05-27 12:22:00,
2013-05-27 07:25:00,51.9,50.5,29.94,ESE,109,4.0,4.0,95,0.03,,---,0.18,VWS V14.00,2013-05-27 12:25:00,
2013-05-27 07:27:00,52.0,50.6,29.94,East,99,0.0,5.0,95,0.02,,---,0.18,VWS V14.00,2013-05-27 12:27:00,
2013-05-27 07:30:00,52.1,50.7,29.94,SE,138,5.0,5.0,95,0.02,,---,0.18,VWS V14.00,2013-05-27 12:30:00,
2013-05-27 07:32:00,52.1,50.7,29.94,ESE,123,4.0,5.0,95,0.02,,---,0.18,VWS V14.00,2013-05-27 12:32:00,
2013-05-27 07:35:00,52.1,50.7,29.94,East,96,0.0,5.0,95,0.02,,---,0.18,VWS V14.00,2013-05-27 12:35:00,
2013-05-27 07:37:00,52.2,51.1,29.94,ESE,106,1.0,4.0,96,0.01,,---,0.18,VWS V14.00,2013-05-27 12:37:00,
2013-05-27 07:40:00,52.3,51.2,29.94,East,97,0.0,6.0,96,0.01,,---,0.18,VWS V14.00,2013-05-27 12:40:00,
2013-05-27 07:42:00,52.3,51.2,29.94,East,94,3.0,3.0,96,0.01,,---,0.18,VWS V14.00,2013-05-27 12:42:00,
2013-05-27 07:45:00,52.4,51.3,29.94,ENE,61,0.0,4.0,96,0.01,,---,0.18,VWS V14.00,2013-05-27 12:45:00,
2013-05-27 07:47:00,52.4,51.3,29.93,SE,130,2.0,4.0,96,0.01,,---,0.18,VWS V14.00,2013-05-27 12:47:00,
2013-05-27 07:50:00,52.5,51.4,29.93,SE,140,0.0,5.0,96,0.01,,---,0.18,VWS V14.00,2013-05-27 12:50:00,
2013-05-27 07:52:00,52.5,51.4,29.93,East,100,7.0,7.0,96,0.01,,---,0.18,VWS V14.00,2013-05-27 12:52:00,
2013-05-27 07:55:00,52.6,51.5,29.93,ESE,122,3.0,7.0,96,0.01,,---,0.18,VWS V14.00,2013-05-27 12:55:00,
2013-05-27 07:57:00,52.6,51.5,29.92,ESE,105,1.0,7.0,96,0.01,,---,0.18,VWS V14.00,2013-05-27 12:57:00,
2013-05-27 08:00:00,52.6,51.5,29.92,East,101,1.0,7.0,96,0.01,,---,0.18,VWS V14.00,2013-05-27 13:00:00,
2013-05-27 08:02:00,52.7,51.6,29.92,SE,125,7.0,7.0,96,0.01,,---,0.18,VWS V14.00,2013-05-27 13:02:00,
2013-05-27 08:05:00,52.8,51.7,29.92,SE,130,0.0,8.0,96,0.01,,---,0.18,VWS V14.00,2013-05-27 13:05:00,
2013-05-27 08:07:00,52.9,51.8,29.92,SE,132,4.0,6.0,96,0.01,,---,0.18,VWS V14.00,2013-05-27 13:07:00,
2013-05-27 08:10:00,52.9,51.8,29.92,ESE,105,8.0,12.0,96,0.01,,---,0.18,VWS V14.00,2013-05-27 13:10:00,
2013-05-27 08:12:00,53.0,51.9,29.91,ESE,109,3.0,10.0,96,0.01,,---,0.18,VWS V14.00,2013-05-27 13:12:00,
2013-05-27 08:15:00,53.0,51.9,29.91,SE,137,3.0,10.0,96,0.01,,---,0.18,VWS V14.00,2013-05-27 13:15:00,
2013-05-27 08:17:00,53.0,51.9,29.91,ENE,75,4.0,8.0,96,0.01,,---,0.18,VWS V14.00,2013-05-27 13:17:00,
2013-05-27 08:20:00,53.1,52.0,29.91,ESE,107,0.0,8.0,96,0.01,,---,0.18,VWS V14.00,2013-05-27 13:20:00,
2013-05-27 08:22:00,53.1,52.0,29.92,ESE,108,2.0,9.0,96,0.01,,---,0.18,VWS V14.00,2013-05-27 13:22:00,
2013-05-27 08:25:00,53.2,52.1,29.92,SSE,148,7.0,9.0,96,0.01,,---,0.18,VWS V14.00,2013-05-27 13:25:00,
2013-05-27 08:27:00,53.2,52.1,29.92,ENE,66,4.0,7.0,96,0.00,,---,0.18,VWS V14.00,2013-05-27 13:27:00,
2013-05-27 08:30:00,53.2,52.1,29.92,SSE,153,4.0,11.0,96,0.00,,---,0.18,VWS V14.00,2013-05-27 13:30:00,
2013-05-27 08:32:00,53.3,52.2,29.92,East,86,0.0,5.0,96,0.00,,---,0.18,VWS V14.00,2013-05-27 13:32:00,
2013-05-27 08:35:00,53.3,52.2,29.92,East,96,0.0,5.0,96,0.00,,---,0.18,VWS V14.00,2013-05-27 13:35:00,
2013-05-27 08:37:00,53.3,52.2,29.92,East,94,1.0,8.0,96,0.00,,---,0.18,VWS V14.00,2013-05-27 13:37:00,
2013-05-27 08:40:00,53.3,52.2,29.92,ESE,118,3.0,8.0,96,0.00,,---,0.18,VWS V14.00,2013-05-27 13:40:00,
2013-05-27 08:42:00,53.4,52.3,29.92,East,93,1.0,9.0,96,0.00,,---,0.18,VWS V14.00,2013-05-27 13:42:00,
2013-05-27 08:45:00,53.5,52.4,29.92,SE,138,4.0,9.0,96,0.00,,---,0.18,VWS V14.00,2013-05-27 13:45:00,
2013-05-27 08:47:00,53.6,52.5,29.92,ENE,67,2.0,5.0,96,0.00,,---,0.18,VWS V14.00,2013-05-27 13:47:00,
2013-05-27 08:50:00,53.6,52.5,29.92,SE,125,4.0,6.0,96,0.00,,---,0.18,VWS V14.00,2013-05-27 13:50:00,
2013-05-27 08:52:00,53.6,52.5,29.92,ESE,121,5.0,10.0,96,0.00,,---,0.18,VWS V14.00,2013-05-27 13:52:00,
2013-05-27 08:55:00,53.7,52.6,29.92,SE,138,5.0,10.0,96,0.00,,---,0.18,VWS V14.00,2013-05-27 13:55:00,
2013-05-27 08:57:00,53.7,52.6,29.92,ESE,102,0.0,6.0,96,0.00,,---,0.18,VWS V14.00,2013-05-27 13:57:00,
2013-05-27 09:00:00,53.8,52.7,29.92,East,96,2.0,6.0,96,0.00,,---,0.18,VWS V14.00,2013-05-27 14:00:00,
2013-05-27 09:02:00,53.8,52.7,29.91,ESE,123,0.0,7.0,96,0.00,,---,0.18,VWS V14.00,2013-05-27 14:02:00,
2013-05-27 09:05:00,53.9,52.8,29.91,ESE,117,6.0,7.0,96,0.00,,---,0.18,VWS V14.00,2013-05-27 14:05:00,
2013-05-27 09:07:00,53.9,52.8,29.91,ESE,109,6.0,11.0,96,0.00,,---,0.18,VWS V14.00,2013-05-27 14:07:00,
2013-05-27 09:10:00,53.9,52.8,29.91,ESE,112,2.0,11.0,96,0.00,,---,0.18,VWS V14.00,2013-05-27 14:10:00,
2013-05-27 09:12:00,54.0,52.9,29.91,ESE,115,0.0,5.0,96,0.00,,---,0.18,VWS V14.00,2013-05-27 14:12:00,
2013-05-27 09:15:00,54.0,52.9,29.91,ESE,123,2.0,5.0,96,0.00,,---,0.18,VWS V14.00,2013-05-27 14:15:00,
2013-05-27 09:17:00,54.1,53.0,29.90,SE,137,3.0,7.0,96,0.00,,---,0.18,VWS V14.00,2013-05-27 14:17:00,
2013-05-27 09:20:00,54.2,53.1,29.90,ESE,110,2.0,7.0,96,0.00,,---,0.18,VWS V14.00,2013-05-27 14:20:00,
2013-05-27 09:22:00,54.2,53.1,29.90,ESE,111,3.0,9.0,96,0.00,,---,0.18,VWS V14.00,2013-05-27 14:22:00,
2013-05-27 09:25:00,54.2,53.1,29.90,ESE,117,1.0,9.0,96,0.00,,---,0.18,VWS V14.00,2013-05-27 14:25:00,
2013-05-27 09:27:00,54.3,53.2,29.90,ESE,108,3.0,10.0,96,0.00,,---,0.18,VWS V14.00,2013-05-27 14:27:00,
2013-05-27 09:30:00,54.4,53.3,29.89,ESE,110,7.0,10.0,96,0.00,,---,0.18,VWS V14.00,2013-05-27 14:30:00,
2013-05-27 09:32:00,54.5,53.4,29.90,East,90,5.0,9.0,96,0.00,,---,0.18,VWS V14.00,2013-05-27 14:32:00,
2013-05-27 09:35:00,54.5,53.4,29.89,ESE,123,4.0,12.0,96,0.00,,---,0.18,VWS V14.00,2013-05-27 14:35:00,
2013-05-27 09:37:00,54.6,53.5,29.89,East,90,4.0,6.0,96,0.00,,---,0.18,VWS V14.00,2013-05-27 14:37:00,
2013-05-27 09:40:00,54.6,53.5,29.89,ESE,117,3.0,11.0,96,0.00,,---,0.18,VWS V14.00,2013-05-27 14:40:00,
2013-05-27 09:42:00,54.7,53.6,29.89,SE,138,3.0,7.0,96,0.00,,---,0.18,VWS V14.00,2013-05-27 14:42:00,
2013-05-27 09:45:00,54.8,53.7,29.89,SE,132,7.0,7.0,96,0.00,,---,0.18,VWS V14.00,2013-05-27 14:45:00,
2013-05-27 09:47:00,54.7,53.6,29.89,NE,55,3.0,11.0,96,0.00,,---,0.18,VWS V14.00,2013-05-27 14:47:00,
2013-05-27 09:50:00,54.7,53.6,29.89,SE,145,11.0,15.0,96,0.00,,---,0.18,VWS V14.00,2013-05-27 14:50:00,
2013-05-27 09:52:00,54.6,53.5,29.89,East,87,3.0,11.0,96,0.00,,---,0.18,VWS V14.00,2013-05-27 14:52:00,
2013-05-27 09:55:00,54.7,53.6,29.89,ESE,110,4.0,11.0,96,0.00,,---,0.18,VWS V14.00,2013-05-27 14:55:00,
2013-05-27 09:57:00,54.8,53.7,29.88,SE,131,10.0,10.0,96,0.00,,---,0.18,VWS V14.00,2013-05-27 14:57:00,
2013-05-27 10:00:00,54.8,53.7,29.88,ESE,111,4.0,10.0,96,0.00,,---,0.18,VWS V14.00,2013-05-27 15:00:00,
2013-05-27 10:02:00,54.7,53.6,29.87,ESE,120,4.0,12.0,96,0.00,,---,0.18,VWS V14.00,2013-05-27 15:02:00,
2013-05-27 10:05:00,54.8,53.7,29.87,SE,136,6.0,14.0,96,0.00,,---,0.18,VWS V14.00,2013-05-27 15:05:00,
2013-05-27 10:07:00,54.8,53.7,29.87,East,92,5.0,11.0,96,0.00,,---,0.18,VWS V14.00,2013-05-27 15:07:00,
2013-05-27 10:10:00,54.7,53.6,29.86,SE,129,7.0,12.0,96,0.00,,---,0.18,VWS V14.00,2013-05-27 15:10:00,
2013-05-27 10:12:00,54.7,53.6,29.86,ESE,117,7.0,13.0,96,0.00,,---,0.18,VWS V14.00,2013-05-27 15:12:00,
2013-05-27 10:15:00,54.6,53.5,29.86,SSE,163,6.0,15.0,96,0.00,,---,0.18,VWS V14.00,2013-05-27 15:15:00,
2013-05-27 10:17:00,54.7,53.6,29.86,ESE,115,10.0,11.0,96,0.00,,---,0.18,VWS V14.00,2013-05-27 15:17:00,
2013-05-27 10:20:00,54.6,53.5,29.85,SE,134,3.0,16.0,96,0.00,,---,0.18,VWS V14.00,2013-05-27 15:20:00,
2013-05-27 10:22:00,54.5,53.4,29.85,SE,134,13.0,15.0,96,0.00,,---,0.18,VWS V14.00,2013-05-27 15:22:00,
2013-05-27 10:25:00,54.4,53.3,29.85,SE,137,9.0,15.0,96,0.00,,---,0.18,VWS V14.00,2013-05-27 15:25:00,
2013-05-27 10:27:00,54.3,53.2,29.85,SSE,161,4.0,14.0,96,0.00,,---,0.18,VWS V14.00,2013-05-27 15:27:00,
2013-05-27 10:30:00,54.3,53.2,29.86,SSE,152,4.0,15.0,96,0.00,,---,0.18,VWS V14.00,2013-05-27 15:30:00,
2013-05-27 10:32:00,54.3,53.2,29.86,SE,136,4.0,13.0,96,0.00,,---,0.18,VWS V14.00,2013-05-27 15:32:00,
2013-05-27 10:35:00,54.2,53.1,29.86,SE,126,4.0,13.0,96,0.00,,---,0.18,VWS V14.00,2013-05-27 15:35:00,
2013-05-27 10:37:00,54.2,53.1,29.86,South,172,5.0,15.0,96,0.00,,---,0.18,VWS V14.00,2013-05-27 15:37:00,
2013-05-27 10:40:00,54.3,53.2,29.86,South,173,5.0,15.0,96,0.00,,---,0.18,VWS V14.00,2013-05-27 15:40:00,
2013-05-27 10:42:00,54.2,53.1,29.87,ENE,65,6.0,14.0,96,0.00,,---,0.18,VWS V14.00,2013-05-27 15:42:00,
2013-05-27 10:45:00,54.2,53.1,29.87,SE,141,11.0,14.0,96,0.00,,---,0.18,VWS V14.00,2013-05-27 15:45:00,
2013-05-27 10:47:00,54.3,53.2,29.87,East,88,9.0,14.0,96,0.00,,---,0.18,VWS V14.00,2013-05-27 15:47:00,
2013-05-27 10:50:00,54.3,53.2,29.87,SE,130,1.0,14.0,96,0.00,,---,0.18,VWS V14.00,2013-05-27 15:50:00,
2013-05-27 10:52:00,54.1,53.0,29.88,ESE,106,6.0,12.0,96,0.00,,---,0.18,VWS V14.00,2013-05-27 15:52:00,
2013-05-27 10:55:00,54.1,53.0,29.88,ESE,117,6.0,12.0,96,0.00,,---,0.18,VWS V14.00,2013-05-27 15:55:00,
2013-05-27 10:58:00,54.2,53.1,29.89,East,100,4.0,9.0,96,0.00,,---,0.18,VWS V14.00,2013-05-27 15:58:00,
2013-05-27 11:00:00,54.2,53.1,29.89,SSE,159,2.0,10.0,96,0.00,,---,0.18,VWS V14.00,2013-05-27 16:00:00,
2013-05-27 11:03:00,54.2,53.1,29.89,ESE,113,5.0,7.0,96,0.00,,---,0.18,VWS V14.00,2013-05-27 16:03:00,
2013-05-27 11:05:00,54.2,53.1,29.89,ESE,122,8.0,10.0,96,0.00,,---,0.18,VWS V14.00,2013-05-27 16:05:00,
2013-05-27 11:08:00,54.2,53.1,29.89,SE,140,4.0,8.0,96,0.00,,---,0.18,VWS V14.00,2013-05-27 16:08:00,
2013-05-27 11:10:00,54.3,53.2,29.89,East,94,1.0,8.0,96,0.00,,---,0.18,VWS V14.00,2013-05-27 16:10:00,
2013-05-27 11:13:00,54.4,53.6,29.89,ESE,109,1.0,6.0,97,0.00,,---,0.18,VWS V14.00,2013-05-27 16:13:00,
2013-05-27 11:15:00,54.5,53.7,29.89,ENE,71,8.0,8.0,97,0.00,,---,0.18,VWS V14.00,2013-05-27 16:15:00,
2013-05-27 11:18:00,54.5,53.7,29.89,East,98,6.0,10.0,97,0.00,,---,0.18,VWS V14.00,2013-05-27 16:18:00,
2013-05-27 11:20:00,54.5,53.7,29.89,ESE,116,5.0,10.0,97,0.00,,---,0.18,VWS V14.00,2013-05-27 16:20:00,
2013-05-27 11:23:00,54.6,53.8,29.89,ESE,110,3.0,7.0,97,0.00,,---,0.18,VWS V14.00,2013-05-27 16:23:00,
2013-05-27 11:25:00,54.6,53.8,29.88,ESE,123,3.0,9.0,97,0.00,,---,0.18,VWS V14.00,2013-05-27 16:25:00,
2013-05-27 11:28:00,54.5,53.7,29.89,ENE,71,5.0,12.0,97,0.00,,---,0.18,VWS V14.00,2013-05-27 16:28:00,
2013-05-27 11:30:00,54.5,53.7,29.89,East,92,9.0,12.0,97,0.00,,---,0.18,VWS V14.00,2013-05-27 16:30:00,
2013-05-27 11:33:00,54.5,53.7,29.89,SE,128,5.0,10.0,97,0.00,,---,0.18,VWS V14.00,2013-05-27 16:33:00,
2013-05-27 11:35:00,54.5,53.7,29.89,ESE,105,2.0,10.0,97,0.00,,---,0.18,VWS V14.00,2013-05-27 16:35:00,
2013-05-27 11:38:00,54.6,53.5,29.89,East,96,4.0,9.0,96,0.00,,---,0.18,VWS V14.00,2013-05-27 16:38:00,
2013-05-27 11:40:00,54.6,53.5,29.89,ESE,123,10.0,12.0,96,0.00,,---,0.18,VWS V14.00,2013-05-27 16:40:00,
2013-05-27 11:43:00,54.6,53.5,29.88,East,79,1.0,14.0,96,0.00,,---,0.18,VWS V14.00,2013-05-27 16:43:00,
2013-05-27 11:45:00,54.6,53.5,29.88,SE,145,6.0,14.0,96,0.00,,---,0.18,VWS V14.00,2013-05-27 16:45:00,
2013-05-27 11:48:00,54.5,53.4,29.88,ESE,113,7.0,13.0,96,0.00,,---,0.18,VWS V14.00,2013-05-27 16:48:00,
2013-05-27 11:50:00,54.5,53.4,29.88,East,84,3.0,13.0,96,0.00,,---,0.18,VWS V14.00,2013-05-27 16:50:00,
2013-05-27 11:53:00,54.6,53.5,29.88,NE,45,6.0,11.0,96,0.00,,---,0.18,VWS V14.00,2013-05-27 16:53:00,
2013-05-27 11:55:00,54.6,53.5,29.88,SE,130,5.0,11.0,96,0.00,,---,0.18,VWS V14.00,2013-05-27 16:55:00,
2013-05-27 11:58:00,54.5,53.4,29.87,East,100,1.0,13.0,96,0.00,,---,0.18,VWS V14.00,2013-05-27 16:58:00,
2013-05-27 12:00:00,54.6,53.5,29.87,East,92,4.0,14.0,96,0.00,,---,0.18,VWS V14.00,2013-05-27 17:00:00,
2013-05-27 12:03:00,54.7,53.6,29.87,ESE,116,11.0,13.0,96,0.00,,---,0.18,VWS V14.00,2013-05-27 17:03:00,
2013-05-27 12:05:00,54.7,53.6,29.87,ESE,113,5.0,13.0,96,0.00,,---,0.18,VWS V14.00,2013-05-27 17:05:00,
2013-05-27 12:08:00,54.7,53.6,29.87,NE,53,5.0,11.0,96,0.00,,---,0.18,VWS V14.00,2013-05-27 17:08:00,
2013-05-27 12:10:00,54.8,53.7,29.87,East,94,9.0,13.0,96,0.00,,---,0.18,VWS V14.00,2013-05-27 17:10:00,
2013-05-27 12:13:00,54.6,53.5,29.86,SE,133,7.0,12.0,96,0.00,,---,0.18,VWS V14.00,2013-05-27 17:13:00,
2013-05-27 12:15:00,54.6,53.5,29.87,ESE,116,6.0,12.0,96,0.00,,---,0.18,VWS V14.00,2013-05-27 17:15:00,
2013-05-27 12:18:00,54.9,53.8,29.86,ENE,76,6.0,17.0,96,0.00,,---,0.18,VWS V14.00,2013-05-27 17:18:00,
2013-05-27 12:20:00,54.8,53.7,29.86,ESE,109,6.0,17.0,96,0.00,,---,0.18,VWS V14.00,2013-05-27 17:20:00,
2013-05-27 12:23:00,54.9,53.8,29.86,SSE,150,3.0,11.0,96,0.00,,---,0.18,VWS V14.00,2013-05-27 17:23:00,
2013-05-27 12:25:00,55.1,54.0,29.86,ESE,119,4.0,11.0,96,0.00,,---,0.18,VWS V14.00,2013-05-27 17:25:00,
2013-05-27 12:28:00,55.0,53.9,29.86,ESE,110,5.0,16.0,96,0.00,,---,0.18,VWS V14.00,2013-05-27 17:28:00,
2013-05-27 12:30:00,55.1,54.0,29.86,NE,39,15.0,16.0,96,0.00,,---,0.18,VWS V14.00,2013-05-27 17:30:00,
2013-05-27 12:33:00,55.0,53.6,29.86,ESE,110,6.0,15.0,95,0.00,,---,0.18,VWS V14.00,2013-05-27 17:33:00,
2013-05-27 12:35:00,55.1,54.0,29.86,ESE,113,6.0,15.0,96,0.00,,---,0.18,VWS V14.00,2013-05-27 17:35:00,
2013-05-27 12:38:00,55.0,53.6,29.86,NE,53,5.0,14.0,95,0.00,,---,0.18,VWS V14.00,2013-05-27 17:38:00,
2013-05-27 12:40:00,55.1,53.7,29.86,ESE,117,11.0,14.0,95,0.00,,---,0.18,VWS V14.00,2013-05-27 17:40:00,
2013-05-27 12:43:00,55.0,53.6,29.86,ESE,107,6.0,17.0,95,0.00,,---,0.18,VWS V14.00,2013-05-27 17:43:00,
2013-05-27 12:45:00,55.0,53.6,29.86,ESE,105,3.0,17.0,95,0.00,,---,0.18,VWS V14.00,2013-05-27 17:45:00,
2013-05-27 12:48:00,55.1,53.7,29.87,SE,129,12.0,12.0,95,0.00,,---,0.18,VWS V14.00,2013-05-27 17:48:00,
2013-05-27 12:50:00,55.1,53.7,29.87,SE,124,8.0,13.0,95,0.00,,---,0.18,VWS V14.00,2013-05-27 17:50:00,
2013-05-27 12:53:00,55.1,53.7,29.86,SSE,150,14.0,15.0,95,0.00,,---,0.18,VWS V14.00,2013-05-27 17:53:00,
2013-05-27 12:55:00,55.1,53.7,29.86,ESE,103,9.0,15.0,95,0.00,,---,0.18,VWS V14.00,2013-05-27 17:55:00,
2013-05-27 12:58:00,55.1,53.7,29.86,ENE,75,4.0,12.0,95,0.00,,---,0.18,VWS V14.00,2013-05-27 17:58:00,
2013-05-27 13:00:00,55.2,53.8,29.86,ESE,106,3.0,12.0,95,0.00,,---,0.18,VWS V14.00,2013-05-27 18:00:00,
2013-05-27 13:03:00,55.2,53.8,29.86,SE,124,6.0,13.0,95,0.00,,---,0.18,VWS V14.00,2013-05-27 18:03:00,
2013-05-27 13:05:00,55.2,53.8,29.86,SE,136,14.0,19.0,95,0.00,,---,0.18,VWS V14.00,2013-05-27 18:05:00,
2013-05-27 13:08:00,55.1,53.4,29.86,ESE,115,6.0,15.0,94,0.00,,---,0.18,VWS V14.00,2013-05-27 18:08:00,
2013-05-27 13:10:00,55.1,53.4,29.86,ESE,102,4.0,17.0,94,0.00,,---,0.18,VWS V14.00,2013-05-27 18:10:00,
2013-05-27 13:13:00,55.3,53.9,29.86,SSE,152,10.0,11.0,95,0.00,,---,0.18,VWS V14.00,2013-05-27 18:13:00,
2013-05-27 13:15:00,55.2,53.5,29.86,SSE,155,6.0,11.0,94,0.00,,---,0.18,VWS V14.00,2013-05-27 18:15:00,
2013-05-27 13:18:00,55.3,53.6,29.86,ENE,59,3.0,12.0,94,0.00,,---,0.18,VWS V14.00,2013-05-27 18:18:00,
2013-05-27 13:20:00,55.3,53.6,29.86,NE,40,3.0,12.0,94,0.00,,---,0.18,VWS V14.00,2013-05-27 18:20:00,
2013-05-27 13:23:00,55.4,53.7,29.86,SSE,148,0.0,12.0,94,0.00,,---,0.18,VWS V14.00,2013-05-27 18:23:00,
2013-05-27 13:25:00,55.4,53.7,29.86,East,97,3.0,14.0,94,0.00,,---,0.18,VWS V14.00,2013-05-27 18:25:00,
2013-05-27 13:28:00,55.4,53.7,29.86,ESE,122,6.0,12.0,94,0.00,,---,0.18,VWS V14.00,2013-05-27 18:28:00,
2013-05-27 13:30:00,55.4,53.7,29.86,SSE,160,12.0,14.0,94,0.00,,---,0.18,VWS V14.00,2013-05-27 18:30:00,
2013-05-27 13:33:00,55.3,53.6,29.86,SE,143,6.0,14.0,94,0.00,,---,0.18,VWS V14.00,2013-05-27 18:33:00,
2013-05-27 13:35:00,55.3,53.6,29.85,SE,130,6.0,14.0,94,0.00,,---,0.18,VWS V14.00,2013-05-27 18:35:00,
2013-05-27 13:38:00,55.4,53.7,29.85,East,101,4.0,12.0,94,0.00,,---,0.18,VWS V14.00,2013-05-27 18:38:00,
2013-05-27 13:40:00,55.4,53.7,29.85,SE,127,4.0,15.0,94,0.00,,---,0.18,VWS V14.00,2013-05-27 18:40:00,
2013-05-27 13:43:00,55.4,53.7,29.85,ESE,102,9.0,14.0,94,0.00,,---,0.18,VWS V14.00,2013-05-27 18:43:00,
2013-05-27 13:45:00,55.3,53.6,29.85,ESE,111,5.0,16.0,94,0.00,,---,0.18,VWS V14.00,2013-05-27 18:45:00,
2013-05-27 13:48:00,55.3,53.6,29.85,ESE,107,10.0,13.0,94,0.00,,---,0.18,VWS V14.00,2013-05-27 18:48:00,
2013-05-27 13:50:00,55.3,53.6,29.85,ESE,121,6.0,14.0,94,0.00,,---,0.18,VWS V14.00,2013-05-27 18:50:00,
2013-05-27 13:53:00,55.2,53.5,29.86,ESE,123,9.0,13.0,94,0.00,,---,0.18,VWS V14.00,2013-05-27 18:53:00,
2013-05-27 13:55:00,55.1,53.1,29.86,ESE,115,6.0,13.0,93,0.00,,---,0.18,VWS V14.00,2013-05-27 18:55:00,
2013-05-27 13:58:00,55.1,53.4,29.86,ESE,114,4.0,11.0,94,0.00,,---,0.18,VWS V14.00,2013-05-27 18:58:00,
2013-05-27 14:00:00,55.2,53.5,29.86,East,98,4.0,13.0,94,0.00,,---,0.18,VWS V14.00,2013-05-27 19:00:00,
2013-05-27 14:03:00,55.1,53.1,29.86,ESE,121,6.0,11.0,93,0.00,,---,0.18,VWS V14.00,2013-05-27 19:03:00,
2013-05-27 14:05:00,55.0,53.0,29.86,SE,129,4.0,11.0,93,0.00,,---,0.18,VWS V14.00,2013-05-27 19:05:00,
2013-05-27 14:08:00,55.1,53.4,29.86,East,94,5.0,6.0,94,0.00,,---,0.18,VWS V14.00,2013-05-27 19:08:00,
2013-05-27 14:10:00,55.1,53.4,29.85,ENE,64,5.0,7.0,94,0.00,,---,0.18,VWS V14.00,2013-05-27 19:10:00,
2013-05-27 14:13:00,55.1,53.4,29.85,ESE,115,3.0,9.0,94,0.00,,---,0.18,VWS V14.00,2013-05-27 19:13:00,
2013-05-27 14:15:00,55.1,53.4,29.85,SE,125,1.0,9.0,94,0.00,,---,0.18,VWS V14.00,2013-05-27 19:15:00,
2013-05-27 14:18:00,55.2,53.5,29.85,ESE,119,3.0,7.0,94,0.00,,---,0.18,VWS V14.00,2013-05-27 19:18:00,
2013-05-27 14:20:00,55.2,53.5,29.85,ESE,118,2.0,7.0,94,0.00,,---,0.18,VWS V14.00,2013-05-27 19:20:00,
2013-05-27 14:23:00,55.1,53.4,29.85,SSE,154,1.0,7.0,94,0.00,,---,0.18,VWS V14.00,2013-05-27 19:23:00,
2013-05-27 14:25:00,55.2,53.5,29.85,SSE,148,3.0,7.0,94,0.00,,---,0.18,VWS V14.00,2013-05-27 19:25:00,
2013-05-27 14:28:00,55.2,53.5,29.85,ESE,115,6.0,7.0,94,0.00,,---,0.18,VWS V14.00,2013-05-27 19:28:00,
2013-05-27 14:30:00,55.2,53.5,29.85,ESE,115,4.0,7.0,94,0.00,,---,0.18,VWS V14.00,2013-05-27 19:30:00,
2013-05-27 14:33:00,55.2,53.2,29.85,SE,129,4.0,10.0,93,0.00,,---,0.18,VWS V14.00,2013-05-27 19:33:00,
2013-05-27 14:35:00,55.1,53.1,29.85,SE,130,0.0,10.0,93,0.00,,---,0.18,VWS V14.00,2013-05-27 19:35:00,
2013-05-27 14:38:00,55.2,53.5,29.85,ESE,113,3.0,6.0,94,0.00,,---,0.18,VWS V14.00,2013-05-27 19:38:00,
2013-05-27 14:40:00,55.2,53.5,29.85,ESE,117,2.0,7.0,94,0.00,,---,0.18,VWS V14.00,2013-05-27 19:40:00,
2013-05-27 14:43:00,55.2,53.5,29.85,ESE,111,2.0,8.0,94,0.00,,---,0.18,VWS V14.00,2013-05-27 19:43:00,
2013-05-27 14:45:00,55.3,53.6,29.85,East,98,0.0,8.0,94,0.00,,---,0.18,VWS V14.00,2013-05-27 19:45:00,
2013-05-27 14:48:00,55.3,53.6,29.85,SE,131,5.0,7.0,94,0.00,,---,0.18,VWS V14.00,2013-05-27 19:48:00,
2013-05-27 14:50:00,55.3,53.6,29.85,ENE,63,2.0,7.0,94,0.00,,---,0.18,VWS V14.00,2013-05-27 19:50:00,
2013-05-27 14:53:00,55.3,53.6,29.84,SE,136,4.0,9.0,94,0.00,,---,0.18,VWS V14.00,2013-05-27 19:53:00,
2013-05-27 14:55:00,55.3,53.6,29.84,SSE,157,3.0,9.0,94,0.00,,---,0.18,VWS V14.00,2013-05-27 19:55:00,
2013-05-27 14:58:00,55.3,53.6,29.84,East,93,0.0,9.0,94,0.00,,---,0.18,VWS V14.00,2013-05-27 19:58:00,
2013-05-27 15:00:00,55.4,53.7,29.84,SSE,150,3.0,9.0,94,0.00,,---,0.18,VWS V14.00,2013-05-27 20:00:00,
2013-05-27 15:03:00,55.4,53.7,29.84,SE,129,0.0,7.0,94,0.00,,---,0.18,VWS V14.00,2013-05-27 20:03:00,
2013-05-27 15:05:00,55.4,53.7,29.84,East,80,0.0,7.0,94,0.00,,---,0.18,VWS V14.00,2013-05-27 20:05:00,
2013-05-27 15:08:00,55.4,53.7,29.83,East,92,0.0,6.0,94,0.00,,---,0.18,VWS V14.00,2013-05-27 20:08:00,
2013-05-27 15:10:00,55.4,53.7,29.83,East,82,5.0,6.0,94,0.00,,---,0.18,VWS V14.00,2013-05-27 20:10:00,
2013-05-27 15:13:00,55.3,53.6,29.83,SE,137,11.0,11.0,94,0.00,,---,0.18,VWS V14.00,2013-05-27 20:13:00,
2013-05-27 15:15:00,55.3,53.3,29.83,SE,137,6.0,11.0,93,0.00,,---,0.18,VWS V14.00,2013-05-27 20:15:00,
2013-05-27 15:18:00,55.2,53.2,29.83,SE,132,4.0,12.0,93,0.00,,---,0.18,VWS V14.00,2013-05-27 20:18:00,
2013-05-27 15:20:00,55.2,53.2,29.83,SE,142,6.0,12.0,93,0.00,,---,0.18,VWS V14.00,2013-05-27 20:20:00,
2013-05-27 15:23:00,55.3,53.3,29.83,ESE,118,6.0,9.0,93,0.00,,---,0.18,VWS V14.00,2013-05-27 20:23:00,
2013-05-27 15:25:00,55.3,53.6,29.83,East,94,5.0,9.0,94,0.00,,---,0.18,VWS V14.00,2013-05-27 20:25:00,
2013-05-27 15:28:00,55.4,53.7,29.83,NE,54,5.0,9.0,94,0.00,,---,0.18,VWS V14.00,2013-05-27 20:28:00,
2013-05-27 15:30:00,55.4,53.7,29.83,NNE,18,8.0,9.0,94,0.00,,---,0.18,VWS V14.00,2013-05-27 20:30:00,
2013-05-27 15:33:00,55.5,53.8,29.82,SSE,148,6.0,10.0,94,0.00,,---,0.18,VWS V14.00,2013-05-27 20:33:00,
2013-05-27 15:35:00,55.5,53.5,29.82,SSE,158,5.0,13.0,93,0.00,,---,0.18,VWS V14.00,2013-05-27 20:35:00,
2013-05-27 15:38:00,55.5,53.5,29.82,SE,124,5.0,9.0,93,0.00,,---,0.18,VWS V14.00,2013-05-27 20:38:00,
2013-05-27 15:40:00,55.6,53.6,29.82,East,94,0.0,9.0,93,0.00,,---,0.18,VWS V14.00,2013-05-27 20:40:00,
2013-05-27 15:43:00,55.7,53.7,29.82,East,100,4.0,10.0,93,0.00,,---,0.18,VWS V14.00,2013-05-27 20:43:00,
2013-05-27 15:45:00,55.6,53.6,29.82,SE,134,5.0,10.0,93,0.00,,---,0.18,VWS V14.00,2013-05-27 20:45:00,
2013-05-27 15:48:00,55.7,53.7,29.82,SSE,165,6.0,13.0,93,0.00,,---,0.18,VWS V14.00,2013-05-27 20:48:00,
2013-05-27 15:50:00,55.6,53.6,29.82,ESE,105,6.0,13.0,93,0.00,,---,0.18,VWS V14.00,2013-05-27 20:50:00,
2013-05-27 15:53:00,55.8,53.8,29.82,East,90,4.0,12.0,93,0.00,,---,0.18,VWS V14.00,2013-05-27 20:53:00,
2013-05-27 15:55:00,55.8,53.8,29.81,ESE,109,4.0,12.0,93,0.00,,---,0.18,VWS V14.00,2013-05-27 20:55:00,
2013-05-27 15:58:00,55.9,53.9,29.81,ESE,117,6.0,9.0,93,0.00,,---,0.18,VWS V14.00,2013-05-27 20:58:00,
2013-05-27 16:00:00,55.9,53.9,29.81,SE,137,4.0,12.0,93,0.00,,---,0.18,VWS V14.00,2013-05-27 21:00:00,
2013-05-27 16:03:00,55.9,53.9,29.81,SE,136,10.0,12.0,93,0.00,,---,0.18,VWS V14.00,2013-05-27 21:03:00,
2013-05-27 16:05:00,55.8,53.8,29.81,SE,138,7.0,12.0,93,0.00,,---,0.18,VWS V14.00,2013-05-27 21:05:00,
2013-05-27 16:08:00,55.8,53.8,29.81,SSE,159,1.0,8.0,93,0.00,,---,0.18,VWS V14.00,2013-05-27 21:08:00,
2013-05-27 16:10:00,55.8,53.8,29.81,SE,136,5.0,8.0,93,0.00,,---,0.18,VWS V14.00,2013-05-27 21:10:00,
2013-05-27 16:13:00,55.8,53.8,29.81,East,90,3.0,11.0,93,0.00,,---,0.18,VWS V14.00,2013-05-27 21:13:00,
2013-05-27 16:15:00,55.7,53.7,29.81,East,97,7.0,11.0,93,0.00,,---,0.18,VWS V14.00,2013-05-27 21:15:00,
2013-05-27 16:18:00,55.7,54.0,29.81,ESE,112,3.0,11.0,94,0.00,,---,0.18,VWS V14.00,2013-05-27 21:18:00,
2013-05-27 16:20:00,55.7,54.0,29.81,SE,127,7.0,11.0,94,0.00,,---,0.18,VWS V14.00,2013-05-27 21:20:00,
2013-05-27 16:23:00,55.7,54.0,29.80,SE,130,4.0,10.0,94,0.01,,---,0.19,VWS V14.00,2013-05-27 21:23:00,
2013-05-27 16:25:00,55.7,54.0,29.80,SE,126,2.0,10.0,94,0.01,,---,0.19,VWS V14.00,2013-05-27 21:25:00,
2013-05-27 16:28:00,55.8,54.1,29.80,NE,45,5.0,10.0,94,0.01,,---,0.19,VWS V14.00,2013-05-27 21:28:00,
2013-05-27 16:30:00,55.8,54.1,29.80,ESE,103,0.0,10.0,94,0.01,,---,0.19,VWS V14.00,2013-05-27 21:30:00,
2013-05-27 16:33:00,55.8,54.1,29.81,ESE,115,4.0,10.0,94,0.01,,---,0.19,VWS V14.00,2013-05-27 21:33:00,
2013-05-27 16:35:00,55.8,54.1,29.81,SE,132,9.0,10.0,94,0.01,,---,0.19,VWS V14.00,2013-05-27 21:35:00,
2013-05-27 16:38:00,55.7,54.0,29.81,ESE,106,7.0,12.0,94,0.01,,---,0.19,VWS V14.00,2013-05-27 21:38:00,
2013-05-27 16:40:00,55.7,54.0,29.81,ESE,105,7.0,12.0,94,0.01,,---,0.19,VWS V14.00,2013-05-27 21:40:00,
2013-05-27 16:43:00,55.6,53.9,29.81,SE,127,7.0,10.0,94,0.01,,---,0.19,VWS V14.00,2013-05-27 21:43:00,
2013-05-27 16:45:00,55.6,53.9,29.81,SE,128,5.0,10.0,94,0.01,,---,0.19,VWS V14.00,2013-05-27 21:45:00,
2013-05-27 16:48:00,55.6,53.9,29.80,ESE,115,4.0,6.0,94,0.01,,---,0.19,VWS V14.00,2013-05-27 21:48:00,
2013-05-27 16:50:00,55.6,53.9,29.80,SE,134,1.0,6.0,94,0.01,,---,0.19,VWS V14.00,2013-05-27 21:50:00,
2013-05-27 16:53:00,55.6,54.2,29.80,ESE,106,2.0,10.0,95,0.02,,---,0.20,VWS V14.00,2013-05-27 21:53:00,
2013-05-27 16:55:00,55.6,54.2,29.80,East,94,7.0,10.0,95,0.02,,---,0.20,VWS V14.00,2013-05-27 21:55:00,
2013-05-27 16:58:00,55.5,53.8,29.80,East,88,9.0,10.0,94,0.02,,---,0.20,VWS V14.00,2013-05-27 21:58:00,
2013-05-27 17:00:00,55.4,53.7,29.80,SE,134,4.0,10.0,94,0.02,,---,0.20,VWS V14.00,2013-05-27 22:00:00,
2013-05-27 17:03:00,55.3,53.6,29.80,ESE,106,3.0,12.0,94,0.02,,---,0.20,VWS V14.00,2013-05-27 22:03:00,
2013-05-27 17:05:00,55.3,53.6,29.80,SE,130,10.0,12.0,94,0.02,,---,0.20,VWS V14.00,2013-05-27 22:05:00,
2013-05-27 17:08:00,55.3,53.6,29.80,SE,127,6.0,12.0,94,0.02,,---,0.20,VWS V14.00,2013-05-27 22:08:00,
2013-05-27 17:10:00,55.2,53.5,29.80,East,98,3.0,12.0,94,0.02,,---,0.20,VWS V14.00,2013-05-27 22:10:00,
2013-05-27 17:13:00,55.2,53.5,29.80,SE,136,10.0,10.0,94,0.02,,---,0.20,VWS V14.00,2013-05-27 22:13:00,
2013-05-27 17:15:00,55.2,53.5,29.80,East,90,4.0,10.0,94,0.02,,---,0.20,VWS V14.00,2013-05-27 22:15:00,
2013-05-27 17:18:00,55.2,53.5,29.79,ENE,69,3.0,14.0,94,0.02,,---,0.20,VWS V14.00,2013-05-27 22:18:00,
2013-05-27 17:20:00,55.2,53.5,29.79,SE,130,7.0,14.0,94,0.02,,---,0.20,VWS V14.00,2013-05-27 22:20:00,
2013-05-27 17:23:00,55.2,53.8,29.79,ENE,74,0.0,13.0,95,0.02,,---,0.20,VWS V14.00,2013-05-27 22:23:00,
2013-05-27 17:25:00,55.2,53.8,29.79,East,101,5.0,13.0,95,0.02,,---,0.20,VWS V14.00,2013-05-27 22:25:00,
2013-05-27 17:28:00,55.2,53.8,29.79,SE,126,5.0,12.0,95,0.01,,---,0.20,VWS V14.00,2013-05-27 22:28:00,
2013-05-27 17:30:00,55.2,53.8,29.79,SE,138,6.0,13.0,95,0.01,,---,0.20,VWS V14.00,2013-05-27 22:30:00,
2013-05-27 17:34:00,55.2,53.8,29.80,SSE,148,2.0,7.0,95,0.01,,---,0.20,VWS V14.00,2013-05-27 22:34:00,
2013-05-27 17:35:00,55.2,53.8,29.80,SE,130,5.0,7.0,95,0.01,,---,0.20,VWS V14.00,2013-05-27 22:35:00,
2013-05-27 17:39:00,55.1,53.7,29.80,ESE,121,7.0,10.0,95,0.01,,---,0.20,VWS V14.00,2013-05-27 22:39:00,
2013-05-27 17:40:00,55.1,53.7,29.80,ESE,110,3.0,10.0,95,0.01,,---,0.20,VWS V14.00,2013-05-27 22:40:00,
2013-05-27 17:44:00,55.0,53.6,29.80,East,95,4.0,11.0,95,0.01,,---,0.20,VWS V14.00,2013-05-27 22:44:00,
2013-05-27 17:45:00,55.0,53.6,29.80,ENE,68,0.0,11.0,95,0.01,,---,0.20,VWS V14.00,2013-05-27 22:45:00,
2013-05-27 17:49:00,54.9,53.5,29.80,SE,130,2.0,12.0,95,0.01,,---,0.20,VWS V14.00,2013-05-27 22:49:00,
2013-05-27 17:50:00,54.9,53.5,29.80,East,84,8.0,12.0,95,0.01,,---,0.20,VWS V14.00,2013-05-27 22:50:00,
2013-05-27 17:54:00,54.8,53.4,29.80,SE,130,1.0,10.0,95,0.01,,---,0.20,VWS V14.00,2013-05-27 22:54:00,
2013-05-27 17:55:00,54.8,53.4,29.80,SE,146,5.0,10.0,95,0.01,,---,0.20,VWS V14.00,2013-05-27 22:55:00,
2013-05-27 17:59:00,54.8,53.4,29.80,ESE,114,6.0,10.0,95,0.00,,---,0.20,VWS V14.00,2013-05-27 22:59:00,
2013-05-27 18:00:00,54.7,53.3,29.80,ESE,115,4.0,10.0,95,0.00,,---,0.20,VWS V14.00,2013-05-27 23:00:00,
2013-05-27 18:04:00,54.6,53.2,29.79,SE,140,6.0,11.0,95,0.00,,---,0.20,VWS V14.00,2013-05-27 23:04:00,
2013-05-27 18:05:00,54.5,53.1,29.79,ESE,106,6.0,11.0,95,0.00,,---,0.20,VWS V14.00,2013-05-27 23:05:00,
2013-05-27 18:09:00,54.5,53.1,29.79,East,87,8.0,11.0,95,0.00,,---,0.20,VWS V14.00,2013-05-27 23:09:00,
2013-05-27 18:10:00,54.4,53.0,29.79,ESE,106,11.0,11.0,95,0.00,,---,0.20,VWS V14.00,2013-05-27 23:10:00,
2013-05-27 18:14:00,54.4,53.0,29.78,SE,126,10.0,12.0,95,0.00,,---,0.20,VWS V14.00,2013-05-27 23:14:00,
2013-05-27 18:15:00,54.4,53.0,29.78,SSE,153,5.0,12.0,95,0.00,,---,0.20,VWS V14.00,2013-05-27 23:15:00,
2013-05-27 18:19:00,54.4,53.0,29.79,SE,126,5.0,16.0,95,0.00,,---,0.20,VWS V14.00,2013-05-27 23:19:00,
2013-05-27 18:20:00,54.4,53.0,29.79,SE,145,9.0,16.0,95,0.00,,---,0.20,VWS V14.00,2013-05-27 23:20:00,
2013-05-27 18:24:00,54.3,52.9,29.79,ENE,72,5.0,16.0,95,0.00,,---,0.20,VWS V14.00,2013-05-27 23:24:00,
2013-05-27 18:25:00,54.3,52.9,29.79,ESE,121,3.0,16.0,95,0.00,,---,0.20,VWS V14.00,2013-05-27 23:25:00,
2013-05-27 18:29:00,54.3,52.9,29.79,ESE,120,13.0,14.0,95,0.00,,---,0.20,VWS V14.00,2013-05-27 23:29:00,
2013-05-27 18:30:00,54.3,52.9,29.79,South,186,9.0,14.0,95,0.00,,---,0.20,VWS V14.00,2013-05-27 23:30:00,
2013-05-27 18:34:00,54.3,52.9,29.79,ESE,123,10.0,10.0,95,0.00,,---,0.20,VWS V14.00,2013-05-27 23:34:00,
2013-05-27 18:35:00,54.3,52.9,29.79,SE,125,9.0,13.0,95,0.00,,---,0.20,VWS V14.00,2013-05-27 23:35:00,
2013-05-27 18:39:00,54.3,52.9,29.78,SE,138,4.0,14.0,95,0.00,,---,0.20,VWS V14.00,2013-05-27 23:39:00,
2013-05-27 18:40:00,54.3,52.9,29.78,ESE,105,6.0,14.0,95,0.00,,---,0.20,VWS V14.00,2013-05-27 23:40:00,
2013-05-27 18:44:00,54.3,52.9,29.78,East,87,2.0,11.0,95,0.00,,---,0.20,VWS V14.00,2013-05-27 23:44:00,
2013-05-27 18:45:00,54.3,52.9,29.78,South,178,3.0,11.0,95,0.00,,---,0.20,VWS V14.00,2013-05-27 23:45:00,
2013-05-27 18:49:00,54.2,52.8,29.78,ENE,73,0.0,10.0,95,0.00,,---,0.20,VWS V14.00,2013-05-27 23:49:00,
2013-05-27 18:50:00,54.1,52.7,29.78,East,84,0.0,10.0,95,0.00,,---,0.20,VWS V14.00,2013-05-27 23:50:00,
2013-05-27 18:54:00,54.0,52.9,29.78,ENE,78,3.0,12.0,96,0.00,,---,0.20,VWS V14.00,2013-05-27 23:54:00,
2013-05-27 18:55:00,53.9,52.8,29.78,East,82,4.0,12.0,96,0.00,,---,0.20,VWS V14.00,2013-05-27 23:55:00,
2013-05-27 18:59:00,53.8,52.4,29.78,ESE,105,1.0,12.0,95,0.00,,---,0.20,VWS V14.00,2013-05-27 23:59:00,
2013-05-27 19:00:00,53.8,52.7,29.78,ESE,117,7.0,12.0,96,0.00,,---,0.20,VWS V14.00,2013-05-28 00:00:00,
2013-05-27 19:04:00,53.7,52.6,29.78,ENE,71,4.0,10.0,96,0.00,,---,0.20,VWS V14.00,2013-05-28 00:04:00,
2013-05-27 19:05:00,53.7,52.6,29.78,NE,48,6.0,10.0,96,0.00,,---,0.20,VWS V14.00,2013-05-28 00:05:00,
2013-05-27 19:09:00,53.6,52.5,29.78,ENE,71,4.0,10.0,96,0.00,,---,0.20,VWS V14.00,2013-05-28 00:09:00,
2013-05-27 19:10:00,53.6,52.5,29.78,East,98,1.0,10.0,96,0.00,,---,0.20,VWS V14.00,2013-05-28 00:10:00,
2013-05-27 19:14:00,53.6,52.5,29.78,NE,48,0.0,12.0,96,0.00,,---,0.20,VWS V14.00,2013-05-28 00:14:00,
2013-05-27 19:15:00,53.7,52.6,29.78,ENE,71,4.0,12.0,96,0.00,,---,0.20,VWS V14.00,2013-05-28 00:15:00,
2013-05-27 19:19:00,53.6,52.5,29.78,SSE,162,6.0,10.0,96,0.00,,---,0.20,VWS V14.00,2013-05-28 00:19:00,
2013-05-27 19:20:00,53.6,52.5,29.78,East,86,5.0,10.0,96,0.00,,---,0.20,VWS V14.00,2013-05-28 00:20:00,
2013-05-27 19:24:00,53.6,52.5,29.78,SE,134,5.0,12.0,96,0.00,,---,0.20,VWS V14.00,2013-05-28 00:24:00,
2013-05-27 19:25:00,53.6,52.5,29.78,East,83,4.0,12.0,96,0.00,,---,0.20,VWS V14.00,2013-05-28 00:25:00,
2013-05-27 19:29:00,53.6,52.5,29.78,ESE,111,4.0,10.0,96,0.00,,---,0.20,VWS V14.00,2013-05-28 00:29:00,
2013-05-27 19:30:00,53.6,52.5,29.78,SE,137,1.0,10.0,96,0.00,,---,0.20,VWS V14.00,2013-05-28 00:30:00,
2013-05-27 19:34:00,53.5,52.4,29.78,East,80,7.0,13.0,96,0.00,,---,0.20,VWS V14.00,2013-05-28 00:34:00,
2013-05-27 19:35:00,53.4,52.3,29.78,ESE,120,3.0,13.0,96,0.00,,---,0.20,VWS V14.00,2013-05-28 00:35:00,
2013-05-27 19:39:00,53.3,52.2,29.78,East,94,5.0,12.0,96,0.00,,---,0.20,VWS V14.00,2013-05-28 00:39:00,
2013-05-27 19:40:00,53.3,52.2,29.78,East,90,4.0,12.0,96,0.00,,---,0.20,VWS V14.00,2013-05-28 00:40:00,
2013-05-27 19:44:00,53.3,52.2,29.78,SSE,153,4.0,12.0,96,0.00,,---,0.20,VWS V14.00,2013-05-28 00:44:00,
2013-05-27 19:45:00,53.3,52.2,29.78,SE,144,4.0,12.0,96,0.00,,---,0.20,VWS V14.00,2013-05-28 00:45:00,
2013-05-27 19:49:00,53.3,52.2,29.78,ESE,122,4.0,11.0,96,0.00,,---,0.20,VWS V14.00,2013-05-28 00:49:00,
2013-05-27 19:50:00,53.3,52.2,29.78,ESE,118,6.0,11.0,96,0.00,,---,0.20,VWS V14.00,2013-05-28 00:50:00,
2013-05-27 19:54:00,53.3,52.2,29.77,East,88,1.0,10.0,96,0.00,,---,0.20,VWS V14.00,2013-05-28 00:54:00,
2013-05-27 19:55:00,53.3,52.2,29.77,East,100,0.0,10.0,96,0.00,,---,0.20,VWS V14.00,2013-05-28 00:55:00,
2013-05-27 19:59:00,53.3,52.2,29.78,SE,130,4.0,9.0,96,0.00,,---,0.20,VWS V14.00,2013-05-28 00:59:00,
2013-05-27 20:00:00,53.3,52.2,29.78,East,101,3.0,9.0,96,0.00,,---,0.20,VWS V14.00,2013-05-28 01:00:00,
2013-05-27 20:04:00,53.2,52.1,29.78,East,92,1.0,10.0,96,0.00,,---,0.20,VWS V14.00,2013-05-28 01:04:00,
2013-05-27 20:05:00,53.2,52.1,29.78,East,83,0.0,10.0,96,0.00,,---,0.20,VWS V14.00,2013-05-28 01:05:00,
2013-05-27 20:09:00,53.2,52.1,29.78,East,88,0.0,7.0,96,0.00,,---,0.20,VWS V14.00,2013-05-28 01:09:00,
2013-05-27 20:10:00,53.2,52.1,29.78,East,96,0.0,7.0,96,0.00,,---,0.20,VWS V14.00,2013-05-28 01:10:00,
2013-05-27 20:14:00,53.1,52.0,29.77,East,94,4.0,8.0,96,0.00,,---,0.20,VWS V14.00,2013-05-28 01:14:00,
2013-05-27 20:15:00,53.1,52.0,29.77,SE,146,5.0,8.0,96,0.00,,---,0.20,VWS V14.00,2013-05-28 01:15:00,
2013-05-27 20:19:00,53.1,52.0,29.77,ESE,109,5.0,9.0,96,0.00,,---,0.20,VWS V14.00,2013-05-28 01:19:00,
2013-05-27 20:20:00,53.1,52.0,29.77,NE,36,9.0,9.0,96,0.00,,---,0.20,VWS V14.00,2013-05-28 01:20:00,
2013-05-27 20:24:00,52.9,51.8,29.77,East,79,4.0,10.0,96,0.00,,---,0.20,VWS V14.00,2013-05-28 01:24:00,
2013-05-27 20:25:00,53.0,51.9,29.77,ESE,106,3.0,10.0,96,0.00,,---,0.20,VWS V14.00,2013-05-28 01:25:00,
2013-05-27 20:29:00,52.8,51.7,29.77,ESE,107,4.0,10.0,96,0.00,,---,0.20,VWS V14.00,2013-05-28 01:29:00,
2013-05-27 20:30:00,52.8,51.7,29.77,ESE,113,10.0,11.0,96,0.00,,---,0.20,VWS V14.00,2013-05-28 01:30:00,
2013-05-27 20:34:00,52.8,52.0,29.77,East,90,4.0,10.0,97,0.00,,---,0.20,VWS V14.00,2013-05-28 01:34:00,
2013-05-27 20:35:00,52.7,51.9,29.77,ESE,111,7.0,10.0,97,0.00,,---,0.20,VWS V14.00,2013-05-28 01:35:00,
2013-05-27 20:39:00,52.7,51.9,29.77,East,88,0.0,9.0,97,0.00,,---,0.20,VWS V14.00,2013-05-28 01:39:00,
2013-05-27 20:40:00,52.7,51.9,29.77,East,88,0.0,9.0,97,0.00,,---,0.20,VWS V14.00,2013-05-28 01:40:00,
2013-05-27 20:44:00,52.7,51.9,29.78,ESE,109,4.0,6.0,97,0.00,,---,0.20,VWS V14.00,2013-05-28 01:44:00,
2013-05-27 20:45:00,52.7,51.9,29.78,ESE,114,0.0,6.0,97,0.00,,---,0.20,VWS V14.00,2013-05-28 01:45:00,
2013-05-27 20:49:00,52.6,51.8,29.78,East,100,3.0,12.0,97,0.00,,---,0.20,VWS V14.00,2013-05-28 01:49:00,
2013-05-27 20:50:00,52.6,51.8,29.78,East,98,1.0,12.0,97,0.00,,---,0.20,VWS V14.00,2013-05-28 01:50:00,
2013-05-27 20:54:00,52.6,51.8,29.78,ESE,103,7.0,7.0,97,0.00,,---,0.20,VWS V14.00,2013-05-28 01:54:00,
2013-05-27 20:55:00,52.6,51.8,29.78,ESE,120,5.0,10.0,97,0.00,,---,0.20,VWS V14.00,2013-05-28 01:55:00,
2013-05-27 20:59:00,52.6,51.8,29.78,ESE,105,0.0,10.0,97,0.00,,---,0.20,VWS V14.00,2013-05-28 01:59:00,
2013-05-27 21:00:00,52.6,51.8,29.78,East,91,0.0,10.0,97,0.00,,---,0.20,VWS V14.00,2013-05-28 02:00:00,
2013-05-27 21:04:00,52.5,51.7,29.78,East,94,1.0,6.0,97,0.00,,---,0.20,VWS V14.00,2013-05-28 02:04:00,
2013-05-27 21:05:00,52.5,51.7,29.78,East,94,2.0,6.0,97,0.00,,---,0.20,VWS V14.00,2013-05-28 02:05:00,
2013-05-27 21:09:00,52.4,51.6,29.78,ESE,118,2.0,6.0,97,0.00,,---,0.20,VWS V14.00,2013-05-28 02:09:00,
2013-05-27 21:10:00,52.4,51.6,29.78,ESE,117,5.0,6.0,97,0.00,,---,0.20,VWS V14.00,2013-05-28 02:10:00,
2013-05-27 21:14:00,52.4,51.6,29.78,ESE,119,2.0,7.0,97,0.00,,---,0.20,VWS V14.00,2013-05-28 02:14:00,
2013-05-27 21:15:00,52.4,51.6,29.78,ESE,119,3.0,7.0,97,0.00,,---,0.20,VWS V14.00,2013-05-28 02:15:00,
2013-05-27 21:19:00,52.4,51.6,29.78,ENE,66,3.0,6.0,97,0.00,,---,0.20,VWS V14.00,2013-05-28 02:19:00,
2013-05-27 21:20:00,52.4,51.6,29.78,East,94,3.0,6.0,97,0.00,,---,0.20,VWS V14.00,2013-05-28 02:20:00,
2013-05-27 21:24:00,52.4,51.6,29.78,ESE,123,3.0,10.0,97,0.00,,---,0.20,VWS V14.00,2013-05-28 02:24:00,
2013-05-27 21:25:00,52.4,51.6,29.78,ESE,115,3.0,10.0,97,0.00,,---,0.20,VWS V14.00,2013-05-28 02:25:00,
2013-05-27 21:29:00,52.4,51.6,29.78,SE,132,1.0,6.0,97,0.00,,---,0.20,VWS V14.00,2013-05-28 02:29:00,
2013-05-27 21:30:00,52.4,51.6,29.78,ESE,121,4.0,6.0,97,0.00,,---,0.20,VWS V14.00,2013-05-28 02:30:00,
2013-05-27 21:34:00,52.4,51.6,29.79,ESE,115,3.0,7.0,97,0.00,,---,0.20,VWS V14.00,2013-05-28 02:34:00,
2013-05-27 21:35:00,52.4,51.6,29.79,SE,130,2.0,7.0,97,0.00,,---,0.20,VWS V14.00,2013-05-28 02:35:00,
2013-05-27 21:39:00,52.4,51.6,29.79,ESE,105,2.0,11.0,97,0.00,,---,0.20,VWS V14.00,2013-05-28 02:39:00,
2013-05-27 21:40:00,52.4,51.6,29.79,ESE,109,1.0,11.0,97,0.00,,---,0.20,VWS V14.00,2013-05-28 02:40:00,
2013-05-27 21:44:00,52.4,51.6,29.79,ESE,105,5.0,7.0,97,0.00,,---,0.20,VWS V14.00,2013-05-28 02:44:00,
2013-05-27 21:45:00,52.4,51.6,29.79,ESE,106,5.0,7.0,97,0.00,,---,0.20,VWS V14.00,2013-05-28 02:45:00,
2013-05-27 21:49:00,52.4,51.6,29.79,ESE,107,4.0,5.0,97,0.00,,---,0.20,VWS V14.00,2013-05-28 02:49:00,
2013-05-27 21:50:00,52.4,51.6,29.79,ESE,107,3.0,5.0,97,0.00,,---,0.20,VWS V14.00,2013-05-28 02:50:00,
2013-05-27 21:54:00,52.4,51.6,29.79,SE,135,3.0,6.0,97,0.00,,---,0.20,VWS V14.00,2013-05-28 02:54:00,
2013-05-27 21:55:00,52.4,51.6,29.79,SE,135,0.0,6.0,97,0.00,,---,0.20,VWS V14.00,2013-05-28 02:55:00,
2013-05-27 21:59:00,52.4,51.6,29.80,SE,128,3.0,6.0,97,0.00,,---,0.20,VWS V14.00,2013-05-28 02:59:00,
2013-05-27 22:00:00,52.4,51.6,29.80,SE,128,3.0,6.0,97,0.00,,---,0.20,VWS V14.00,2013-05-28 03:00:00,
2013-05-27 22:04:00,52.4,51.6,29.80,East,92,2.0,4.0,97,0.00,,---,0.20,VWS V14.00,2013-05-28 03:04:00,
2013-05-27 22:05:00,52.4,51.6,29.80,East,92,2.0,4.0,97,0.00,,---,0.20,VWS V14.00,2013-05-28 03:05:00,
2013-05-27 22:09:00,52.4,51.6,29.80,South,179,0.0,7.0,97,0.00,,---,0.20,VWS V14.00,2013-05-28 03:09:00,
2013-05-27 22:10:00,52.4,51.6,29.80,South,179,0.0,7.0,97,0.00,,---,0.20,VWS V14.00,2013-05-28 03:10:00,
2013-05-27 22:14:00,52.4,51.6,29.80,ESE,118,2.0,6.0,97,0.00,,---,0.20,VWS V14.00,2013-05-28 03:14:00,
2013-05-27 22:15:00,52.4,51.6,29.80,ESE,118,1.0,6.0,97,0.00,,---,0.20,VWS V14.00,2013-05-28 03:15:00,
2013-05-27 22:19:00,52.4,51.6,29.80,ESE,121,0.0,6.0,97,0.00,,---,0.20,VWS V14.00,2013-05-28 03:19:00,
2013-05-27 22:20:00,52.5,51.7,29.80,ESE,121,0.0,6.0,97,0.00,,---,0.20,VWS V14.00,2013-05-28 03:20:00,
2013-05-27 22:24:00,52.4,51.6,29.80,ESE,120,2.0,6.0,97,0.00,,---,0.20,VWS V14.00,2013-05-28 03:24:00,
2013-05-27 22:25:00,52.4,51.6,29.80,ESE,120,2.0,6.0,97,0.00,,---,0.20,VWS V14.00,2013-05-28 03:25:00,
2013-05-27 22:29:00,52.4,51.6,29.81,East,96,0.0,7.0,97,0.00,,---,0.20,VWS V14.00,2013-05-28 03:29:00,
2013-05-27 22:30:00,52.4,51.6,29.81,East,96,0.0,7.0,97,0.00,,---,0.20,VWS V14.00,2013-05-28 03:30:00,
2013-05-27 22:34:00,52.4,51.6,29.80,ESE,111,0.0,5.0,97,0.00,,---,0.20,VWS V14.00,2013-05-28 03:34:00,
2013-05-27 22:35:00,52.4,51.6,29.80,ESE,111,2.0,5.0,97,0.00,,---,0.20,VWS V14.00,2013-05-28 03:35:00,
2013-05-27 22:39:00,52.4,51.6,29.80,SSE,153,0.0,5.0,97,0.00,,---,0.20,VWS V14.00,2013-05-28 03:39:00,
2013-05-27 22:40:00,52.4,51.6,29.80,SSE,153,0.0,5.0,97,0.00,,---,0.20,VWS V14.00,2013-05-28 03:40:00,
2013-05-27 22:44:00,52.4,51.6,29.80,SE,133,1.0,2.0,97,0.00,,---,0.20,VWS V14.00,2013-05-28 03:44:00,
2013-05-27 22:45:00,52.4,51.6,29.80,SE,134,0.0,2.0,97,0.00,,---,0.20,VWS V14.00,2013-05-28 03:45:00,
2013-05-27 22:49:00,52.4,51.6,29.79,SE,130,0.0,4.0,97,0.00,,---,0.20,VWS V14.00,2013-05-28 03:49:00,
2013-05-27 22:50:00,52.4,51.6,29.79,SE,129,1.0,4.0,97,0.00,,---,0.20,VWS V14.00,2013-05-28 03:50:00,
2013-05-27 22:54:00,52.4,51.6,29.79,East,79,0.0,5.0,97,0.00,,---,0.20,VWS V14.00,2013-05-28 03:54:00,
2013-05-27 22:55:00,52.4,51.6,29.79,East,79,0.0,5.0,97,0.00,,---,0.20,VWS V14.00,2013-05-28 03:55:00,
2013-05-27 22:59:00,52.3,51.5,29.79,ESE,109,0.0,4.0,97,0.00,,---,0.20,VWS V14.00,2013-05-28 03:59:00,
2013-05-27 23:00:00,52.3,51.5,29.79,ESE,109,0.0,4.0,97,0.00,,---,0.20,VWS V14.00,2013-05-28 04:00:00,
2013-05-27 23:01:00,52.3,51.5,29.79,ESE,109,0.0,1.0,97,0.00,,---,0.20,VWS V14.00,2013-05-28 04:01:00,
2013-05-27 23:05:00,52.3,51.8,29.79,East,96,0.0,4.0,98,0.00,,---,0.20,VWS V14.00,2013-05-28 04:05:00,
2013-05-27 23:06:00,52.3,51.8,29.79,East,97,0.0,1.0,98,0.00,,---,0.20,VWS V14.00,2013-05-28 04:06:00,
2013-05-27 23:10:00,52.3,51.8,29.79,ESE,123,0.0,4.0,98,0.00,,---,0.20,VWS V14.00,2013-05-28 04:10:00,
2013-05-27 23:11:00,52.3,51.8,29.78,East,84,0.0,2.0,98,0.00,,---,0.20,VWS V14.00,2013-05-28 04:11:00,
2013-05-27 23:15:00,52.3,51.8,29.78,SSE,153,2.0,9.0,98,0.00,,---,0.20,VWS V14.00,2013-05-28 04:15:00,
2013-05-27 23:16:00,52.2,51.7,29.77,SE,124,3.0,10.0,98,0.00,,---,0.20,VWS V14.00,2013-05-28 04:16:00,
2013-05-27 23:20:00,52.2,51.7,29.77,SE,128,4.0,10.0,98,0.00,,---,0.20,VWS V14.00,2013-05-28 04:20:00,
2013-05-27 23:21:00,52.2,51.7,29.77,ENE,65,7.0,7.0,98,0.00,,---,0.20,VWS V14.00,2013-05-28 04:21:00,
2013-05-27 23:25:00,52.2,51.7,29.76,ENE,72,10.0,10.0,98,0.00,,---,0.20,VWS V14.00,2013-05-28 04:25:00,
2013-05-27 23:26:00,52.2,51.7,29.76,ESE,114,5.0,10.0,98,0.00,,---,0.20,VWS V14.00,2013-05-28 04:26:00,
2013-05-27 23:30:00,52.2,51.7,29.76,East,90,3.0,10.0,98,0.00,,---,0.20,VWS V14.00,2013-05-28 04:30:00,
2013-05-27 23:31:00,52.2,51.7,29.76,SE,141,7.0,10.0,98,0.00,,---,0.20,VWS V14.00,2013-05-28 04:31:00,
2013-05-27 23:35:00,52.2,51.7,29.77,SE,129,2.0,10.0,98,0.00,,---,0.20,VWS V14.00,2013-05-28 04:35:00,
2013-05-27 23:36:00,52.2,51.7,29.77,East,99,0.0,9.0,98,0.00,,---,0.20,VWS V14.00,2013-05-28 04:36:00,
2013-05-27 23:40:00,52.2,51.7,29.77,East,98,1.0,9.0,98,0.00,,---,0.20,VWS V14.00,2013-05-28 04:40:00,
2013-05-27 23:41:00,52.2,51.7,29.77,SE,146,3.0,6.0,98,0.00,,---,0.20,VWS V14.00,2013-05-28 04:41:00,
2013-05-27 23:45:00,52.2,51.7,29.77,ESE,114,4.0,7.0,98,0.00,,---,0.20,VWS V14.00,2013-05-28 04:45:00,
2013-05-27 23:46:00,52.2,51.7,29.77,East,93,0.0,5.0,98,0.00,,---,0.20,VWS V14.00,2013-05-28 04:46:00,
2013-05-27 23:50:00,52.2,51.7,29.77,ESE,117,4.0,6.0,98,0.00,,---,0.20,VWS V14.00,2013-05-28 04:50:00,
2013-05-27 23:51:00,52.2,51.7,29.77,East,82,0.0,6.0,98,0.00,,---,0.20,VWS V14.00,2013-05-28 04:51:00,
2013-05-27 23:55:00,52.2,51.7,29.77,ESE,121,1.0,6.0,98,0.00,,---,0.20,VWS V14.00,2013-05-28 04:55:00,
2013-05-27 23:56:00,52.2,51.7,29.77,ESE,111,0.0,5.0,98,0.00,,---,0.20,VWS V14.00,2013-05-28 04:56:00,